Wetterdaten: Montag, 11.09.2017
Datum Zeit Temp. A. Pool Temp. Feuchte A. Luftdruck Regen Wind Richtung Richtung Sonnenschein ET UV Solar Taupunkt Windchill Windben Empfang
11.09.2017 00:00 13,2 C 18,9 C 92 % 1007,0 hPa 0,0 l/m 3,2 km/h (1 Bft) W-SW 247 0 min 0,000 mm 0,0 UV-I 0 W/m 11,9 C 13,2 C 6,4 km/h (2 Bft) 98,25 %
11.09.2017 00:05 13,2 C 18,9 C 92 % 1006,9 hPa 0,0 l/m 3,2 km/h (1 Bft) SW 225 0 min 0,000 mm 0,0 UV-I 0 W/m 11,9 C 13,2 C 6,4 km/h (2 Bft) 97,37 %
11.09.2017 00:10 13,2 C 18,9 C 92 % 1006,8 hPa 0,0 l/m 4,8 km/h (1 Bft) SW 225 0 min 0,000 mm 0,0 UV-I 0 W/m 11,9 C 13,2 C 6,4 km/h (2 Bft) 97,37 %
11.09.2017 00:15 13,2 C 18,9 C 92 % 1006,9 hPa 0,0 l/m 4,8 km/h (1 Bft) SW 225 0 min 0,000 mm 0,0 UV-I 0 W/m 11,9 C 13,2 C 8,0 km/h (2 Bft) 97,37 %
11.09.2017 00:20 13,2 C 18,3 C 92 % 1006,8 hPa 0,0 l/m 4,8 km/h (1 Bft) S-SW 202 0 min 0,000 mm 0,0 UV-I 0 W/m 11,9 C 13,2 C 6,4 km/h (2 Bft) 100,00 %
11.09.2017 00:25 13,2 C 18,3 C 92 % 1006,7 hPa 0,0 l/m 3,2 km/h (1 Bft) S-SW 202 0 min 0,000 mm 0,0 UV-I 0 W/m 11,9 C 13,2 C 6,4 km/h (2 Bft) 100,00 %
11.09.2017 00:30 13,1 C 18,3 C 92 % 1006,6 hPa 0,0 l/m 4,8 km/h (1 Bft) W-SW 247 0 min 0,000 mm 0,0 UV-I 0 W/m 11,8 C 13,1 C 8,0 km/h (2 Bft) 99,12 %
11.09.2017 00:35 13,1 C 18,3 C 92 % 1006,5 hPa 0,0 l/m 4,8 km/h (1 Bft) S-SW 202 0 min 0,000 mm 0,0 UV-I 0 W/m 11,8 C 13,1 C 6,4 km/h (2 Bft) 100,00 %
11.09.2017 00:40 13,1 C 18,3 C 92 % 1006,3 hPa 0,0 l/m 1,6 km/h (1 Bft) S-SW 202 0 min 0,000 mm 0,0 UV-I 0 W/m 11,8 C 13,1 C 4,8 km/h (1 Bft) 100,00 %
11.09.2017 00:45 13,1 C 18,3 C 92 % 1006,4 hPa 0,0 l/m 3,2 km/h (1 Bft) S-SW 202 0 min 0,000 mm 0,0 UV-I 0 W/m 11,8 C 13,1 C 6,4 km/h (2 Bft) 100,00 %
11.09.2017 00:50 13,1 C 18,3 C 92 % 1006,2 hPa 0,0 l/m 4,8 km/h (1 Bft) SW 225 0 min 0,000 mm 0,0 UV-I 0 W/m 11,8 C 13,1 C 6,4 km/h (2 Bft) 100,00 %
11.09.2017 00:55 13,1 C 18,3 C 92 % 1006,1 hPa 0,0 l/m 4,8 km/h (1 Bft) SW 225 0 min 0,000 mm 0,0 UV-I 0 W/m 11,8 C 13,1 C 6,4 km/h (2 Bft) 100,00 %
11.09.2017 01:00 13,0 C 18,3 C 92 % 1006,1 hPa 0,0 l/m 4,8 km/h (1 Bft) SW 225 0 min 0,000 mm 0,0 UV-I 0 W/m 11,7 C 13,0 C 6,4 km/h (2 Bft) 100,00 %
11.09.2017 01:05 12,9 C 18,3 C 92 % 1006,3 hPa 0,0 l/m 3,2 km/h (1 Bft) S-SW 202 0 min 0,000 mm 0,0 UV-I 0 W/m 11,6 C 12,9 C 6,4 km/h (2 Bft) 99,12 %
11.09.2017 01:10 12,9 C 18,3 C 92 % 1006,5 hPa 0,0 l/m 3,2 km/h (1 Bft) S-SW 202 0 min 0,000 mm 0,0 UV-I 0 W/m 11,6 C 12,9 C 6,4 km/h (2 Bft) 96,49 %
11.09.2017 01:15 12,9 C 18,3 C 92 % 1006,5 hPa 0,0 l/m 3,2 km/h (1 Bft) S-SW 202 0 min 0,000 mm 0,0 UV-I 0 W/m 11,6 C 12,9 C 6,4 km/h (2 Bft) 96,49 %
11.09.2017 01:20 12,9 C 18,3 C 92 % 1006,4 hPa 0,0 l/m 1,6 km/h (1 Bft) S-SW 202 0 min 0,000 mm 0,0 UV-I 0 W/m 11,6 C 12,9 C 4,8 km/h (1 Bft) 95,61 %
11.09.2017 01:25 12,8 C 18,3 C 92 % 1006,5 hPa 0,0 l/m 3,2 km/h (1 Bft) S 180 0 min 0,000 mm 0,0 UV-I 0 W/m 11,5 C 12,8 C 8,0 km/h (2 Bft) 94,74 %
11.09.2017 01:30 12,8 C 18,3 C 92 % 1006,3 hPa 0,0 l/m 3,2 km/h (1 Bft) S-SW 202 0 min 0,000 mm 0,0 UV-I 0 W/m 11,5 C 12,8 C 6,4 km/h (2 Bft) 95,61 %
11.09.2017 01:35 12,8 C 18,3 C 92 % 1006,4 hPa 0,0 l/m 3,2 km/h (1 Bft) S-SW 202 0 min 0,000 mm 0,0 UV-I 0 W/m 11,5 C 12,8 C 6,4 km/h (2 Bft) 96,49 %
11.09.2017 01:40 12,8 C 18,3 C 92 % 1006,5 hPa 0,0 l/m 3,2 km/h (1 Bft) S-SW 202 0 min 0,000 mm 0,0 UV-I 0 W/m 11,5 C 12,8 C 8,0 km/h (2 Bft) 96,49 %
11.09.2017 01:45 12,8 C 18,3 C 92 % 1006,3 hPa 0,0 l/m 1,6 km/h (1 Bft) S 180 0 min 0,000 mm 0,0 UV-I 0 W/m 11,5 C 12,8 C 6,4 km/h (2 Bft) 100,00 %
11.09.2017 01:50 12,7 C 18,3 C 92 % 1006,2 hPa 0,0 l/m 1,6 km/h (1 Bft) S-SO 157 0 min 0,000 mm 0,0 UV-I 0 W/m 11,4 C 12,7 C 6,4 km/h (2 Bft) 100,00 %
11.09.2017 01:55 12,7 C 18,3 C 92 % 1006,0 hPa 0,0 l/m 1,6 km/h (1 Bft) S-SW 202 0 min 0,000 mm 0,0 UV-I 0 W/m 11,4 C 12,7 C 4,8 km/h (1 Bft) 100,00 %
11.09.2017 02:00 12,7 C 18,3 C 92 % 1006,0 hPa 0,0 l/m 1,6 km/h (1 Bft) S 180 0 min 0,000 mm 0,0 UV-I 0 W/m 11,4 C 12,7 C 4,8 km/h (1 Bft) 100,00 %
11.09.2017 02:05 12,7 C 18,3 C 92 % 1006,0 hPa 0,0 l/m 1,6 km/h (1 Bft) S 180 0 min 0,000 mm 0,0 UV-I 0 W/m 11,4 C 12,7 C 3,2 km/h (1 Bft) 100,00 %
11.09.2017 02:10 12,6 C 18,3 C 92 % 1006,1 hPa 0,0 l/m 1,6 km/h (1 Bft) S 180 0 min 0,000 mm 0,0 UV-I 0 W/m 11,3 C 12,6 C 3,2 km/h (1 Bft) 100,00 %
11.09.2017 02:15 12,5 C 18,3 C 92 % 1006,1 hPa 0,0 l/m 1,6 km/h (1 Bft) S 180 0 min 0,000 mm 0,0 UV-I 0 W/m 11,2 C 12,5 C 6,4 km/h (2 Bft) 99,12 %
11.09.2017 02:20 12,5 C 18,3 C 92 % 1005,9 hPa 0,0 l/m 1,6 km/h (1 Bft) S-SO 157 0 min 0,000 mm 0,0 UV-I 0 W/m 11,2 C 12,5 C 3,2 km/h (1 Bft) 100,00 %
11.09.2017 02:25 12,4 C 18,3 C 92 % 1005,8 hPa 0,0 l/m 1,6 km/h (1 Bft) S-SO 157 0 min 0,000 mm 0,0 UV-I 0 W/m 11,1 C 12,4 C 3,2 km/h (1 Bft) 100,00 %
11.09.2017 02:30 12,4 C 18,3 C 92 % 1005,7 hPa 0,0 l/m 1,6 km/h (1 Bft) S-SO 157 0 min 0,000 mm 0,0 UV-I 0 W/m 11,1 C 12,4 C 3,2 km/h (1 Bft) 98,25 %
11.09.2017 02:35 12,4 C 18,3 C 93 % 1005,7 hPa 0,0 l/m 1,6 km/h (1 Bft) S-SO 157 0 min 0,000 mm 0,0 UV-I 0 W/m 11,3 C 12,4 C 3,2 km/h (1 Bft) 97,37 %
11.09.2017 02:40 12,4 C 18,3 C 93 % 1005,7 hPa 0,0 l/m 1,6 km/h (1 Bft) S-SO 157 0 min 0,000 mm 0,0 UV-I 0 W/m 11,3 C 12,4 C 3,2 km/h (1 Bft) 98,25 %
11.09.2017 02:45 12,4 C 18,3 C 92 % 1005,6 hPa 0,0 l/m 0,0 km/h (0 Bft) S-SO 157 0 min 0,000 mm 0,0 UV-I 0 W/m 11,1 C 12,4 C 3,2 km/h (1 Bft) 98,25 %
11.09.2017 02:50 12,3 C 18,3 C 92 % 1005,5 hPa 0,0 l/m 0,0 km/h (0 Bft) N 0 0 min 0,000 mm 0,0 UV-I 0 W/m 11,0 C 12,3 C 0,0 km/h (0 Bft) 98,25 %
11.09.2017 02:55 12,3 C 18,3 C 93 % 1005,6 hPa 0,0 l/m 0,0 km/h (0 Bft) S-SO 157 0 min 0,000 mm 0,0 UV-I 0 W/m 11,2 C 12,3 C 1,6 km/h (1 Bft) 100,00 %
11.09.2017 03:00 12,3 C 18,3 C 93 % 1005,4 hPa 0,0 l/m 0,0 km/h (0 Bft) S-SO 157 0 min 0,000 mm 0,0 UV-I 0 W/m 11,2 C 12,3 C 1,6 km/h (1 Bft) 99,12 %
11.09.2017 03:05 12,3 C 18,3 C 93 % 1005,2 hPa 0,0 l/m 0,0 km/h (0 Bft) N 0 0 min 0,000 mm 0,0 UV-I 0 W/m 11,2 C 12,3 C 0,0 km/h (0 Bft) 99,12 %
11.09.2017 03:10 12,2 C 18,3 C 93 % 1005,1 hPa 0,0 l/m 0,0 km/h (0 Bft) S-SO 157 0 min 0,000 mm 0,0 UV-I 0 W/m 11,1 C 12,2 C 1,6 km/h (1 Bft) 98,25 %
11.09.2017 03:15 12,2 C 18,3 C 93 % 1005,2 hPa 0,0 l/m 0,0 km/h (0 Bft) S-SO 157 0 min 0,000 mm 0,0 UV-I 0 W/m 11,1 C 12,2 C 1,6 km/h (1 Bft) 97,37 %
11.09.2017 03:20 12,2 C 18,3 C 93 % 1005,2 hPa 0,0 l/m 0,0 km/h (0 Bft) S-SO 157 0 min 0,000 mm 0,0 UV-I 0 W/m 11,1 C 12,2 C 1,6 km/h (1 Bft) 97,37 %
11.09.2017 03:25 12,2 C 18,3 C 93 % 1005,2 hPa 0,0 l/m 0,0 km/h (0 Bft) S-SO 157 0 min 0,000 mm 0,0 UV-I 0 W/m 11,1 C 12,2 C 3,2 km/h (1 Bft) 97,37 %
11.09.2017 03:30 12,2 C 18,3 C 93 % 1005,1 hPa 0,0 l/m 0,0 km/h (0 Bft) N 0 0 min 0,000 mm 0,0 UV-I 0 W/m 11,1 C 12,2 C 0,0 km/h (0 Bft) 98,25 %
11.09.2017 03:35 12,2 C 18,3 C 93 % 1004,9 hPa 0,0 l/m 0,0 km/h (0 Bft) S-SO 157 0 min 0,000 mm 0,0 UV-I 0 W/m 11,1 C 12,2 C 1,6 km/h (1 Bft) 98,25 %
11.09.2017 03:40 12,2 C 18,3 C 93 % 1005,0 hPa 0,0 l/m 0,0 km/h (0 Bft) S-SO 157 0 min 0,000 mm 0,0 UV-I 0 W/m 11,1 C 12,2 C 1,6 km/h (1 Bft) 98,25 %
11.09.2017 03:45 12,2 C 18,3 C 93 % 1005,0 hPa 0,0 l/m 0,0 km/h (0 Bft) N 0 0 min 0,000 mm 0,0 UV-I 0 W/m 11,1 C 12,2 C 0,0 km/h (0 Bft) 100,00 %
11.09.2017 03:50 12,2 C 18,3 C 93 % 1004,8 hPa 0,0 l/m 0,0 km/h (0 Bft) N 0 0 min 0,000 mm 0,0 UV-I 0 W/m 11,1 C 12,2 C 0,0 km/h (0 Bft) 97,37 %
11.09.2017 03:55 12,2 C 18,3 C 93 % 1004,7 hPa 0,0 l/m 0,0 km/h (0 Bft) N 0 0 min 0,000 mm 0,0 UV-I 0 W/m 11,1 C 12,2 C 0,0 km/h (0 Bft) 95,61 %
11.09.2017 04:00 12,1 C 18,3 C 93 % 1004,6 hPa 0,0 l/m 0,0 km/h (0 Bft) S-SO 157 0 min 0,000 mm 0,0 UV-I 0 W/m 11,0 C 12,1 C 1,6 km/h (1 Bft) 99,12 %
11.09.2017 04:05 12,2 C 18,3 C 93 % 1004,7 hPa 0,0 l/m 0,0 km/h (0 Bft) N 0 0 min 0,000 mm 0,0 UV-I 0 W/m 11,1 C 12,2 C 0,0 km/h (0 Bft) 99,12 %
11.09.2017 04:10 12,1 C 18,3 C 93 % 1004,6 hPa 0,0 l/m 0,0 km/h (0 Bft) N 0 0 min 0,000 mm 0,0 UV-I 0 W/m 11,0 C 12,1 C 0,0 km/h (0 Bft) 100,00 %
11.09.2017 04:15 12,1 C 18,3 C 93 % 1004,5 hPa 0,0 l/m 0,0 km/h (0 Bft) N 0 0 min 0,000 mm 0,0 UV-I 0 W/m 11,0 C 12,1 C 0,0 km/h (0 Bft) 100,00 %
11.09.2017 04:20 12,1 C 18,3 C 93 % 1004,5 hPa 0,0 l/m 0,0 km/h (0 Bft) N 0 0 min 0,000 mm 0,0 UV-I 0 W/m 11,0 C 12,1 C 0,0 km/h (0 Bft) 100,00 %
11.09.2017 04:26 12,1 C 18,3 C 93 % 1004,3 hPa 0,0 l/m 0,0 km/h (0 Bft) S-SO 160 0 min 0,000 mm 0,0 UV-I 0 W/m 11,0 C 12,1 C 0,0 km/h (0 Bft) 100,00 %
11.09.2017 04:28 12,1 C 18,3 C 93 % 1004,3 hPa 0,0 l/m 0,0 km/h (0 Bft) S-SO 160 0 min 0,000 mm 0,0 UV-I 0 W/m 11,0 C 12,1 C 0,0 km/h (0 Bft) 100,00 %
11.09.2017 04:30 12,1 C 18,3 C 94 % 1004,3 hPa 0,0 l/m 0,0 km/h (0 Bft) S-SO 160 0 min 0,000 mm 0,0 UV-I 0 W/m 11,2 C 12,1 C 0,0 km/h (0 Bft) 96,00 %
11.09.2017 04:32 12,0 C 18,3 C 94 % 1004,3 hPa 0,0 l/m 0,0 km/h (0 Bft) S-SO 160 0 min 0,000 mm 0,0 UV-I 0 W/m 11,1 C 12,0 C 0,0 km/h (0 Bft) 97,87 %
11.09.2017 04:34 12,0 C 18,3 C 94 % 1004,3 hPa 0,0 l/m 0,0 km/h (0 Bft) S-SO 160 0 min 0,000 mm 0,0 UV-I 0 W/m 11,1 C 12,0 C 0,0 km/h (0 Bft) 97,87 %
11.09.2017 04:36 11,9 C 18,3 C 93 % 1004,3 hPa 0,0 l/m 0,0 km/h (0 Bft) S-SO 160 0 min 0,000 mm 0,0 UV-I 0 W/m 10,8 C 11,9 C 0,0 km/h (0 Bft) 98,00 %
11.09.2017 04:38 11,9 C 18,3 C 93 % 1004,3 hPa 0,0 l/m 0,0 km/h (0 Bft) S-SO 160 0 min 0,000 mm 0,0 UV-I 0 W/m 10,8 C 11,9 C 0,0 km/h (0 Bft) 97,87 %
11.09.2017 04:40 11,9 C 18,3 C 93 % 1004,3 hPa 0,0 l/m 0,0 km/h (0 Bft) S-SO 160 0 min 0,000 mm 0,0 UV-I 0 W/m 10,8 C 11,9 C 0,0 km/h (0 Bft) 95,12 %
11.09.2017 04:42 11,9 C 18,3 C 93 % 1004,2 hPa 0,0 l/m 0,0 km/h (0 Bft) S-SO 160 0 min 0,000 mm 0,0 UV-I 0 W/m 10,8 C 11,9 C 0,0 km/h (0 Bft) 96,00 %
11.09.2017 04:44 11,8 C 18,3 C 93 % 1004,2 hPa 0,0 l/m 0,0 km/h (0 Bft) S-SO 160 0 min 0,000 mm 0,0 UV-I 0 W/m 10,7 C 11,8 C 0,0 km/h (0 Bft) 97,87 %
11.09.2017 04:46 11,8 C 18,3 C 93 % 1004,3 hPa 0,0 l/m 0,0 km/h (0 Bft) S-SO 160 0 min 0,000 mm 0,0 UV-I 0 W/m 10,7 C 11,8 C 0,0 km/h (0 Bft) 96,23 %
11.09.2017 04:48 11,8 C 18,3 C 93 % 1004,2 hPa 0,0 l/m 0,0 km/h (0 Bft) S-SO 160 0 min 0,000 mm 0,0 UV-I 0 W/m 10,7 C 11,8 C 0,0 km/h (0 Bft) 95,45 %
11.09.2017 04:50 11,7 C 18,3 C 93 % 1004,3 hPa 0,0 l/m 0,0 km/h (0 Bft) S-SO 160 0 min 0,000 mm 0,0 UV-I 0 W/m 10,6 C 11,7 C 0,0 km/h (0 Bft) 93,62 %
11.09.2017 04:53 11,6 C 18,3 C 93 % 1004,3 hPa 0,0 l/m 0,0 km/h (0 Bft) S-SO 160 0 min 0,000 mm 0,0 UV-I 0 W/m 10,5 C 11,6 C 0,0 km/h (0 Bft) 93,55 %
11.09.2017 04:54 11,6 C 18,3 C 93 % 1004,3 hPa 0,0 l/m 0,0 km/h (0 Bft) S-SO 160 0 min 0,000 mm 0,0 UV-I 0 W/m 10,5 C 11,6 C 0,0 km/h (0 Bft) 96,15 %
11.09.2017 04:56 11,6 C 18,3 C 93 % 1004,2 hPa 0,0 l/m 0,0 km/h (0 Bft) S-SO 160 0 min 0,000 mm 0,0 UV-I 0 W/m 10,5 C 11,6 C 0,0 km/h (0 Bft) 94,00 %
11.09.2017 04:58 11,6 C 18,3 C 93 % 1004,2 hPa 0,0 l/m 0,0 km/h (0 Bft) S-SO 161 0 min 0,000 mm 0,0 UV-I 0 W/m 10,5 C 11,6 C 0,0 km/h (0 Bft) 93,62 %
11.09.2017 05:00 11,6 C 18,3 C 93 % 1004,1 hPa 0,0 l/m 0,0 km/h (0 Bft) S-SO 161 0 min 0,000 mm 0,0 UV-I 0 W/m 10,5 C 11,6 C 0,0 km/h (0 Bft) 96,00 %
11.09.2017 05:02 11,5 C 18,3 C 93 % 1004,1 hPa 0,0 l/m 0,0 km/h (0 Bft) S-SO 161 0 min 0,000 mm 0,0 UV-I 0 W/m 10,4 C 11,5 C 0,0 km/h (0 Bft) 94,29 %
11.09.2017 05:04 11,5 C 18,3 C 93 % 1004,1 hPa 0,0 l/m 0,0 km/h (0 Bft) S-SO 161 0 min 0,000 mm 0,0 UV-I 0 W/m 10,4 C 11,5 C 1,6 km/h (1 Bft) 96,72 %
11.09.2017 05:06 11,5 C 18,3 C 93 % 1004,2 hPa 0,0 l/m 0,0 km/h (0 Bft) S-SO 164 0 min 0,000 mm 0,0 UV-I 0 W/m 10,4 C 11,5 C 0,0 km/h (0 Bft) 97,87 %
11.09.2017 05:08 11,5 C 18,3 C 93 % 1004,2 hPa 0,0 l/m 0,0 km/h (0 Bft) S-SO 164 0 min 0,000 mm 0,0 UV-I 0 W/m 10,4 C 11,5 C 0,0 km/h (0 Bft) 97,87 %
11.09.2017 05:10 11,4 C 18,3 C 93 % 1004,2 hPa 0,0 l/m 0,0 km/h (0 Bft) S-SO 164 0 min 0,000 mm 0,0 UV-I 0 W/m 10,3 C 11,4 C 0,0 km/h (0 Bft) 94,44 %
11.09.2017 05:12 11,4 C 18,3 C 93 % 1004,1 hPa 0,0 l/m 0,0 km/h (0 Bft) S-SO 164 0 min 0,000 mm 0,0 UV-I 0 W/m 10,3 C 11,4 C 0,0 km/h (0 Bft) 97,87 %
11.09.2017 05:14 11,4 C 18,3 C 93 % 1004,1 hPa 0,0 l/m 0,0 km/h (0 Bft) S-SO 164 0 min 0,000 mm 0,0 UV-I 0 W/m 10,3 C 11,4 C 0,0 km/h (0 Bft) 95,74 %
11.09.2017 05:16 11,3 C 18,3 C 93 % 1004,1 hPa 0,0 l/m 0,0 km/h (0 Bft) S-SO 164 0 min 0,000 mm 0,0 UV-I 0 W/m 10,2 C 11,3 C 0,0 km/h (0 Bft) 96,00 %
11.09.2017 05:19 11,3 C 18,3 C 93 % 1004,2 hPa 0,0 l/m 0,0 km/h (0 Bft) S-SO 164 0 min 0,000 mm 0,0 UV-I 0 W/m 10,2 C 11,3 C 0,0 km/h (0 Bft) 98,63 %
11.09.2017 05:20 11,3 C 18,3 C 93 % 1004,2 hPa 0,0 l/m 0,0 km/h (0 Bft) S-SO 164 0 min 0,000 mm 0,0 UV-I 0 W/m 10,2 C 11,3 C 0,0 km/h (0 Bft) 95,83 %
11.09.2017 05:24 11,2 C 18,3 C 93 % 1004,1 hPa 0,0 l/m 0,0 km/h (0 Bft) S-SO 164 0 min 0,000 mm 0,0 UV-I 0 W/m 10,1 C 11,2 C 0,0 km/h (0 Bft) 97,00 %
11.09.2017 05:26 11,2 C 18,3 C 93 % 1004,1 hPa 0,0 l/m 0,0 km/h (0 Bft) S-SO 164 0 min 0,000 mm 0,0 UV-I 0 W/m 10,1 C 11,2 C 0,0 km/h (0 Bft) 97,14 %
11.09.2017 05:28 11,1 C 18,3 C 93 % 1004,1 hPa 0,0 l/m 0,0 km/h (0 Bft) S-SO 164 0 min 0,000 mm 0,0 UV-I 0 W/m 10,0 C 11,1 C 0,0 km/h (0 Bft) 96,00 %
11.09.2017 05:30 11,1 C 18,3 C 93 % 1004,1 hPa 0,0 l/m 0,0 km/h (0 Bft) S-SO 164 0 min 0,000 mm 0,0 UV-I 0 W/m 10,0 C 11,1 C 0,0 km/h (0 Bft) 96,00 %
11.09.2017 05:32 11,1 C 18,3 C 93 % 1004,0 hPa 0,0 l/m 0,0 km/h (0 Bft) S-SO 164 0 min 0,000 mm 0,0 UV-I 0 W/m 10,0 C 11,1 C 0,0 km/h (0 Bft) 97,87 %
11.09.2017 05:34 11,1 C 18,3 C 93 % 1004,0 hPa 0,0 l/m 0,0 km/h (0 Bft) S-SO 164 0 min 0,000 mm 0,0 UV-I 0 W/m 10,0 C 11,1 C 0,0 km/h (0 Bft) 97,87 %
11.09.2017 05:36 11,1 C 18,3 C 93 % 1003,9 hPa 0,0 l/m 0,0 km/h (0 Bft) S-SO 164 0 min 0,000 mm 0,0 UV-I 0 W/m 10,0 C 11,1 C 0,0 km/h (0 Bft) 93,62 %
11.09.2017 05:38 11,1 C 18,3 C 94 % 1003,9 hPa 0,0 l/m 0,0 km/h (0 Bft) S-SO 164 0 min 0,000 mm 0,0 UV-I 0 W/m 10,2 C 11,1 C 0,0 km/h (0 Bft) 97,87 %
11.09.2017 05:40 11,1 C 18,3 C 94 % 1004,0 hPa 0,0 l/m 0,0 km/h (0 Bft) S-SO 164 0 min 0,000 mm 0,0 UV-I 0 W/m 10,2 C 11,1 C 0,0 km/h (0 Bft) 100,00 %
11.09.2017 05:42 11,0 C 18,3 C 94 % 1004,0 hPa 0,0 l/m 0,0 km/h (0 Bft) S-SO 164 0 min 0,000 mm 0,0 UV-I 0 W/m 10,1 C 11,0 C 0,0 km/h (0 Bft) 98,00 %
11.09.2017 05:44 11,1 C 18,3 C 94 % 1004,0 hPa 0,0 l/m 0,0 km/h (0 Bft) S-SO 164 0 min 0,000 mm 0,0 UV-I 0 W/m 10,2 C 11,1 C 0,0 km/h (0 Bft) 100,00 %
11.09.2017 05:46 11,1 C 18,3 C 94 % 1004,1 hPa 0,0 l/m 0,0 km/h (0 Bft) S-SO 164 0 min 0,000 mm 0,0 UV-I 0 W/m 10,2 C 11,1 C 0,0 km/h (0 Bft) 100,00 %
11.09.2017 05:48 11,0 C 18,3 C 94 % 1004,1 hPa 0,0 l/m 0,0 km/h (0 Bft) S-SO 163 0 min 0,000 mm 0,0 UV-I 0 W/m 10,1 C 11,0 C 0,0 km/h (0 Bft) 100,00 %
11.09.2017 05:50 11,1 C 18,3 C 94 % 1004,0 hPa 0,0 l/m 0,0 km/h (0 Bft) S-SO 163 0 min 0,000 mm 0,0 UV-I 0 W/m 10,2 C 11,1 C 0,0 km/h (0 Bft) 100,00 %
11.09.2017 05:52 11,1 C 18,3 C 94 % 1003,9 hPa 0,0 l/m 0,0 km/h (0 Bft) S-SO 163 0 min 0,000 mm 0,0 UV-I 0 W/m 10,2 C 11,1 C 0,0 km/h (0 Bft) 100,00 %
11.09.2017 05:54 11,1 C 18,3 C 94 % 1003,9 hPa 0,0 l/m 0,0 km/h (0 Bft) S-SO 163 0 min 0,000 mm 0,0 UV-I 0 W/m 10,2 C 11,1 C 0,0 km/h (0 Bft) 100,00 %
11.09.2017 05:56 11,1 C 18,3 C 94 % 1003,9 hPa 0,0 l/m 2,7 km/h (1 Bft) N-NO 29 0 min 0,000 mm 0,0 UV-I 0 W/m 10,2 C 11,1 C 4,8 km/h (1 Bft) 100,00 %
11.09.2017 05:58 11,1 C 18,3 C 94 % 1004,0 hPa 0,0 l/m 1,6 km/h (1 Bft) N-NO 29 0 min 0,000 mm 0,0 UV-I 0 W/m 10,2 C 11,1 C 3,2 km/h (1 Bft) 100,00 %
11.09.2017 06:00 11,1 C 18,3 C 95 % 1004,0 hPa 0,0 l/m 0,2 km/h (0 Bft) N-NO 29 0 min 0,000 mm 0,0 UV-I 0 W/m 10,3 C 11,1 C 1,6 km/h (1 Bft) 100,00 %
11.09.2017 06:02 11,2 C 18,3 C 95 % 1004,0 hPa 0,0 l/m 0,0 km/h (0 Bft) N-NO 29 0 min 0,000 mm 0,0 UV-I 0 W/m 10,4 C 11,2 C 0,0 km/h (0 Bft) 98,21 %
11.09.2017 06:04 11,2 C 18,3 C 95 % 1004,0 hPa 0,0 l/m 0,0 km/h (0 Bft) N-NO 29 0 min 0,000 mm 0,0 UV-I 0 W/m 10,4 C 11,2 C 1,6 km/h (1 Bft) 100,00 %
11.09.2017 06:06 11,2 C 18,3 C 95 % 1003,9 hPa 0,0 l/m 0,0 km/h (0 Bft) N-NO 29 0 min 0,000 mm 0,0 UV-I 0 W/m 10,4 C 11,2 C 0,0 km/h (0 Bft) 100,00 %
11.09.2017 06:08 11,2 C 18,3 C 95 % 1003,9 hPa 0,0 l/m 0,0 km/h (0 Bft) N-NO 29 0 min 0,000 mm 0,0 UV-I 0 W/m 10,4 C 11,2 C 0,0 km/h (0 Bft) 100,00 %
11.09.2017 06:10 11,2 C 18,3 C 95 % 1003,9 hPa 0,0 l/m 0,4 km/h (0 Bft) N-NO 29 0 min 0,000 mm 0,0 UV-I 0 W/m 10,4 C 11,2 C 3,2 km/h (1 Bft) 100,00 %
11.09.2017 06:12 11,2 C 18,3 C 95 % 1004,0 hPa 0,0 l/m 2,3 km/h (1 Bft) N-NO 29 0 min 0,000 mm 0,0 UV-I 0 W/m 10,4 C 11,2 C 3,2 km/h (1 Bft) 98,00 %
11.09.2017 06:14 11,2 C 18,3 C 95 % 1004,1 hPa 0,0 l/m 1,0 km/h (0 Bft) N-NO 30 0 min 0,000 mm 0,0 UV-I 0 W/m 10,4 C 11,2 C 3,2 km/h (1 Bft) 100,00 %
11.09.2017 06:16 11,2 C 18,3 C 95 % 1004,2 hPa 0,0 l/m 0,0 km/h (0 Bft) O-NO 63 0 min 0,000 mm 0,0 UV-I 0 W/m 10,4 C 11,2 C 1,6 km/h (1 Bft) 100,00 %
11.09.2017 06:18 11,2 C 18,3 C 95 % 1004,2 hPa 0,0 l/m 0,0 km/h (0 Bft) O-NO 63 0 min 0,000 mm 0,0 UV-I 0 W/m 10,4 C 11,2 C 1,6 km/h (1 Bft) 100,00 %
11.09.2017 06:20 11,2 C 18,3 C 95 % 1004,3 hPa 0,0 l/m 0,1 km/h (0 Bft) O-NO 63 0 min 0,000 mm 0,0 UV-I 0 W/m 10,4 C 11,2 C 1,6 km/h (1 Bft) 100,00 %
11.09.2017 06:22 11,2 C 18,3 C 95 % 1004,2 hPa 0,0 l/m 0,0 km/h (0 Bft) O-NO 63 0 min 0,000 mm 0,0 UV-I 0 W/m 10,4 C 11,2 C 1,6 km/h (1 Bft) 100,00 %
11.09.2017 06:24 11,2 C 18,3 C 95 % 1004,3 hPa 0,0 l/m 1,8 km/h (1 Bft) O 86 0 min 0,000 mm 0,0 UV-I 0 W/m 10,4 C 11,2 C 4,8 km/h (1 Bft) 100,00 %
11.09.2017 06:26 11,2 C 18,3 C 95 % 1004,3 hPa 0,0 l/m 3,7 km/h (1 Bft) O-SO 122 0 min 0,000 mm 0,0 UV-I 5 W/m 10,4 C 11,2 C 4,8 km/h (1 Bft) 100,00 %
11.09.2017 06:28 11,1 C 18,3 C 95 % 1004,4 hPa 0,0 l/m 3,3 km/h (1 Bft) O-SO 122 0 min 0,000 mm 0,0 UV-I 5 W/m 10,3 C 11,1 C 4,8 km/h (1 Bft) 98,00 %
11.09.2017 06:30 11,1 C 18,3 C 95 % 1004,4 hPa 0,0 l/m 3,3 km/h (1 Bft) O-SO 122 0 min 0,000 mm 0,0 UV-I 5 W/m 10,3 C 11,1 C 6,4 km/h (2 Bft) 100,00 %
11.09.2017 06:32 11,1 C 18,3 C 95 % 1004,4 hPa 0,0 l/m 0,0 km/h (0 Bft) O-SO 122 0 min 0,000 mm 0,0 UV-I 7 W/m 10,3 C 11,1 C 0,0 km/h (0 Bft) 97,87 %
11.09.2017 06:34 11,1 C 18,3 C 95 % 1004,5 hPa 0,0 l/m 0,0 km/h (0 Bft) O-SO 122 0 min 0,000 mm 0,0 UV-I 8 W/m 10,3 C 11,1 C 0,0 km/h (0 Bft) 98,11 %
11.09.2017 06:36 11,1 C 18,3 C 95 % 1004,5 hPa 0,0 l/m 0,0 km/h (0 Bft) O-SO 122 0 min 0,000 mm 0,0 UV-I 9 W/m 10,3 C 11,1 C 1,6 km/h (1 Bft) 97,14 %
11.09.2017 06:38 11,0 C 18,3 C 95 % 1004,6 hPa 0,0 l/m 0,0 km/h (0 Bft) O-SO 122 0 min 0,000 mm 0,0 UV-I 11 W/m 10,2 C 11,0 C 0,0 km/h (0 Bft) 97,37 %
11.09.2017 06:40 11,0 C 18,3 C 95 % 1004,6 hPa 0,0 l/m 0,0 km/h (0 Bft) O-SO 122 0 min 0,000 mm 0,0 UV-I 11 W/m 10,2 C 11,0 C 0,0 km/h (0 Bft) 96,92 %
11.09.2017 06:42 11,0 C 18,3 C 96 % 1004,5 hPa 0,0 l/m 0,0 km/h (0 Bft) O-SO 122 0 min 0,000 mm 0,0 UV-I 11 W/m 10,4 C 11,0 C 0,0 km/h (0 Bft) 97,87 %
11.09.2017 06:44 11,0 C 18,3 C 96 % 1004,4 hPa 0,0 l/m 0,0 km/h (0 Bft) O-SO 122 0 min 0,000 mm 0,0 UV-I 12 W/m 10,4 C 11,0 C 0,0 km/h (0 Bft) 98,00 %
11.09.2017 06:46 10,9 C 18,3 C 95 % 1004,3 hPa 0,0 l/m 0,0 km/h (0 Bft) O-SO 122 2 min 0,000 mm 0,0 UV-I 13 W/m 10,1 C 10,9 C 0,0 km/h (0 Bft) 97,87 %
11.09.2017 06:48 10,9 C 18,3 C 96 % 1004,3 hPa 0,0 l/m 0,0 km/h (0 Bft) O-SO 122 2 min 0,000 mm 0,0 UV-I 14 W/m 10,3 C 10,9 C 0,0 km/h (0 Bft) 93,62 %
11.09.2017 06:50 10,9 C 18,3 C 96 % 1004,3 hPa 0,0 l/m 0,0 km/h (0 Bft) O-SO 122 0 min 0,000 mm 0,0 UV-I 15 W/m 10,3 C 10,9 C 0,0 km/h (0 Bft) 97,87 %
11.09.2017 06:52 10,9 C 18,3 C 96 % 1004,4 hPa 0,0 l/m 0,0 km/h (0 Bft) O-SO 122 0 min 0,000 mm 0,0 UV-I 16 W/m 10,3 C 10,9 C 0,0 km/h (0 Bft) 97,87 %
11.09.2017 06:54 10,9 C 18,3 C 96 % 1004,4 hPa 0,0 l/m 0,0 km/h (0 Bft) O-SO 122 0 min 0,000 mm 0,0 UV-I 18 W/m 10,3 C 10,9 C 1,6 km/h (1 Bft) 95,74 %
11.09.2017 06:56 10,8 C 18,3 C 96 % 1004,4 hPa 0,0 l/m 0,0 km/h (0 Bft) O-SO 122 0 min 0,000 mm 0,0 UV-I 19 W/m 10,2 C 10,8 C 0,0 km/h (0 Bft) 97,37 %
11.09.2017 06:58 10,8 C 18,3 C 96 % 1004,4 hPa 0,0 l/m 0,0 km/h (0 Bft) O-SO 122 0 min 0,000 mm 0,0 UV-I 21 W/m 10,2 C 10,8 C 0,0 km/h (0 Bft) 97,87 %
11.09.2017 07:00 10,8 C 18,3 C 96 % 1004,3 hPa 0,0 l/m 0,0 km/h (0 Bft) O-SO 122 0 min 0,000 mm 0,0 UV-I 21 W/m 10,2 C 10,8 C 0,0 km/h (0 Bft) 96,00 %
11.09.2017 07:02 10,8 C 18,3 C 95 % 1004,3 hPa 0,0 l/m 0,0 km/h (0 Bft) O-SO 122 0 min 0,000 mm 0,0 UV-I 20 W/m 10,0 C 10,8 C 0,0 km/h (0 Bft) 98,00 %
11.09.2017 07:04 10,8 C 18,3 C 96 % 1004,2 hPa 0,0 l/m 0,0 km/h (0 Bft) O-SO 122 0 min 0,000 mm 0,0 UV-I 18 W/m 10,2 C 10,8 C 0,0 km/h (0 Bft) 100,00 %
11.09.2017 07:06 10,8 C 18,3 C 96 % 1004,3 hPa 0,0 l/m 0,1 km/h (0 Bft) O-SO 122 0 min 0,000 mm 0,0 UV-I 20 W/m 10,2 C 10,8 C 1,6 km/h (1 Bft) 100,00 %
11.09.2017 07:08 10,8 C 18,3 C 96 % 1004,3 hPa 0,0 l/m 1,9 km/h (1 Bft) S-SW 207 0 min 0,000 mm 0,0 UV-I 24 W/m 10,2 C 10,8 C 4,8 km/h (1 Bft) 100,00 %
11.09.2017 07:10 10,8 C 18,3 C 96 % 1004,3 hPa 0,0 l/m 3,7 km/h (1 Bft) W-SW 237 0 min 0,000 mm 0,0 UV-I 27 W/m 10,2 C 10,8 C 4,8 km/h (1 Bft) 96,00 %
11.09.2017 07:12 10,8 C 18,3 C 96 % 1004,2 hPa 0,0 l/m 2,8 km/h (1 Bft) W-SW 237 0 min 0,000 mm 0,0 UV-I 30 W/m 10,2 C 10,8 C 4,8 km/h (1 Bft) 97,44 %
11.09.2017 07:14 10,8 C 18,3 C 96 % 1004,2 hPa 0,0 l/m 2,0 km/h (1 Bft) W-SW 237 0 min 0,000 mm 0,0 UV-I 32 W/m 10,2 C 10,8 C 3,2 km/h (1 Bft) 100,00 %
11.09.2017 07:16 10,8 C 18,3 C 96 % 1004,2 hPa 0,0 l/m 2,7 km/h (1 Bft) W-SW 237 0 min 0,000 mm 0,0 UV-I 32 W/m 10,2 C 10,8 C 4,8 km/h (1 Bft) 100,00 %
11.09.2017 07:18 10,8 C 18,3 C 96 % 1004,2 hPa 0,0 l/m 1,2 km/h (1 Bft) W-SW 237 0 min 0,000 mm 0,0 UV-I 32 W/m 10,2 C 10,8 C 3,2 km/h (1 Bft) 100,00 %
11.09.2017 07:20 10,8 C 18,3 C 96 % 1004,3 hPa 0,0 l/m 0,3 km/h (0 Bft) W-SW 237 0 min 0,000 mm 0,0 UV-I 32 W/m 10,2 C 10,8 C 1,6 km/h (1 Bft) 100,00 %
11.09.2017 07:22 10,8 C 18,3 C 96 % 1004,4 hPa 0,0 l/m 1,2 km/h (1 Bft) SW 236 0 min 0,000 mm 0,0 UV-I 32 W/m 10,2 C 10,8 C 3,2 km/h (1 Bft) 100,00 %
11.09.2017 07:24 10,8 C 18,3 C 96 % 1004,3 hPa 0,0 l/m 1,6 km/h (1 Bft) SW 236 0 min 0,000 mm 0,0 UV-I 32 W/m 10,2 C 10,8 C 4,8 km/h (1 Bft) 100,00 %
11.09.2017 07:26 10,8 C 18,3 C 96 % 1004,3 hPa 0,0 l/m 0,3 km/h (0 Bft) S-SW 204 0 min 0,000 mm 0,0 UV-I 32 W/m 10,2 C 10,8 C 1,6 km/h (1 Bft) 98,00 %
11.09.2017 07:28 10,8 C 18,3 C 96 % 1004,3 hPa 0,0 l/m 0,5 km/h (0 Bft) S 185 0 min 0,000 mm 0,0 UV-I 33 W/m 10,2 C 10,8 C 3,2 km/h (1 Bft) 100,00 %
11.09.2017 07:30 10,8 C 18,3 C 96 % 1004,3 hPa 0,0 l/m 0,0 km/h (0 Bft) S 185 0 min 0,000 mm 0,0 UV-I 36 W/m 10,2 C 10,8 C 0,0 km/h (0 Bft) 100,00 %
11.09.2017 07:32 10,8 C 18,3 C 96 % 1004,3 hPa 0,0 l/m 0,1 km/h (0 Bft) S 185 0 min 0,000 mm 0,0 UV-I 38 W/m 10,2 C 10,8 C 1,6 km/h (1 Bft) 100,00 %
11.09.2017 07:34 10,8 C 18,3 C 96 % 1004,3 hPa 0,0 l/m 0,1 km/h (0 Bft) S 185 0 min 0,000 mm 0,0 UV-I 39 W/m 10,2 C 10,8 C 1,6 km/h (1 Bft) 97,87 %
11.09.2017 07:36 10,8 C 18,3 C 96 % 1004,3 hPa 0,0 l/m 0,0 km/h (0 Bft) S 185 0 min 0,000 mm 0,0 UV-I 39 W/m 10,2 C 10,8 C 0,0 km/h (0 Bft) 100,00 %
11.09.2017 07:38 10,8 C 18,3 C 96 % 1004,3 hPa 0,0 l/m 0,0 km/h (0 Bft) S 185 0 min 0,000 mm 0,0 UV-I 39 W/m 10,2 C 10,8 C 1,6 km/h (1 Bft) 100,00 %
11.09.2017 07:40 10,8 C 18,3 C 96 % 1004,3 hPa 0,0 l/m 0,0 km/h (0 Bft) S 185 0 min 0,000 mm 0,0 UV-I 41 W/m 10,2 C 10,8 C 0,0 km/h (0 Bft) 100,00 %
11.09.2017 07:42 10,8 C 18,3 C 96 % 1004,3 hPa 0,0 l/m 0,6 km/h (0 Bft) S 185 0 min 0,000 mm 0,0 UV-I 45 W/m 10,2 C 10,8 C 3,2 km/h (1 Bft) 100,00 %
11.09.2017 07:44 10,8 C 18,3 C 96 % 1004,2 hPa 0,0 l/m 0,4 km/h (0 Bft) S 185 0 min 0,000 mm 0,0 UV-I 48 W/m 10,2 C 10,8 C 1,6 km/h (1 Bft) 100,00 %
11.09.2017 07:46 10,8 C 18,3 C 96 % 1004,3 hPa 0,0 l/m 0,0 km/h (0 Bft) S 185 0 min 0,000 mm 0,0 UV-I 49 W/m 10,2 C 10,8 C 0,0 km/h (0 Bft) 100,00 %
11.09.2017 07:48 10,8 C 18,3 C 96 % 1004,4 hPa 0,0 l/m 0,0 km/h (0 Bft) S 185 0 min 0,000 mm 0,0 UV-I 51 W/m 10,2 C 10,8 C 0,0 km/h (0 Bft) 100,00 %
11.09.2017 07:50 10,8 C 18,3 C 96 % 1004,5 hPa 0,0 l/m 0,0 km/h (0 Bft) S 185 0 min 0,000 mm 0,0 UV-I 54 W/m 10,2 C 10,8 C 0,0 km/h (0 Bft) 100,00 %
11.09.2017 07:52 10,8 C 18,3 C 96 % 1004,5 hPa 0,0 l/m 0,0 km/h (0 Bft) S 185 0 min 0,000 mm 0,0 UV-I 56 W/m 10,2 C 10,8 C 1,6 km/h (1 Bft) 97,87 %
11.09.2017 07:54 10,9 C 18,3 C 96 % 1004,5 hPa 0,0 l/m 1,4 km/h (1 Bft) S 185 0 min 0,000 mm 0,0 UV-I 61 W/m 10,3 C 10,9 C 3,2 km/h (1 Bft) 100,00 %
11.09.2017 07:56 11,1 C 18,3 C 96 % 1004,6 hPa 0,0 l/m 1,8 km/h (1 Bft) S 185 0 min 0,000 mm 0,0 UV-I 65 W/m 10,5 C 11,1 C 3,2 km/h (1 Bft) 100,00 %
11.09.2017 07:58 11,1 C 18,3 C 96 % 1004,7 hPa 0,0 l/m 0,1 km/h (0 Bft) S 185 0 min 0,000 mm 0,0 UV-I 69 W/m 10,5 C 11,1 C 1,6 km/h (1 Bft) 100,00 %
11.09.2017 08:00 11,2 C 18,3 C 96 % 1004,6 hPa 0,0 l/m 0,0 km/h (0 Bft) S 185 0 min 0,025 mm 0,0 UV-I 72 W/m 10,6 C 11,2 C 0,0 km/h (0 Bft) 98,11 %
11.09.2017 08:02 11,3 C 18,3 C 96 % 1004,7 hPa 0,0 l/m 0,1 km/h (0 Bft) S 185 0 min 0,000 mm 0,0 UV-I 75 W/m 10,7 C 11,3 C 1,6 km/h (1 Bft) 100,00 %
11.09.2017 08:04 11,3 C 18,3 C 97 % 1004,7 hPa 0,0 l/m 2,4 km/h (1 Bft) S 185 0 min 0,000 mm 0,0 UV-I 79 W/m 10,8 C 11,3 C 3,2 km/h (1 Bft) 97,87 %
11.09.2017 08:06 11,3 C 18,3 C 96 % 1004,7 hPa 0,0 l/m 0,4 km/h (0 Bft) S 185 0 min 0,000 mm 0,0 UV-I 84 W/m 10,7 C 11,3 C 3,2 km/h (1 Bft) 97,56 %
11.09.2017 08:08 11,4 C 18,3 C 96 % 1004,6 hPa 0,0 l/m 0,4 km/h (0 Bft) S 185 0 min 0,000 mm 0,0 UV-I 89 W/m 10,8 C 11,4 C 3,2 km/h (1 Bft) 98,11 %
11.09.2017 08:10 11,4 C 18,3 C 97 % 1004,6 hPa 0,0 l/m 0,1 km/h (0 Bft) S 185 0 min 0,000 mm 0,0 UV-I 90 W/m 10,9 C 11,4 C 1,6 km/h (1 Bft) 97,37 %
11.09.2017 08:12 11,5 C 18,3 C 96 % 1004,5 hPa 0,0 l/m 0,0 km/h (0 Bft) S 185 0 min 0,000 mm 0,0 UV-I 90 W/m 10,9 C 11,5 C 0,0 km/h (0 Bft) 97,96 %
11.09.2017 08:14 11,6 C 18,3 C 96 % 1004,3 hPa 0,0 l/m 0,1 km/h (0 Bft) S 186 0 min 0,000 mm 0,0 UV-I 86 W/m 11,0 C 11,6 C 1,6 km/h (1 Bft) 97,87 %
11.09.2017 08:16 11,6 C 18,3 C 96 % 1004,2 hPa 0,0 l/m 1,2 km/h (1 Bft) S 186 0 min 0,000 mm 0,0 UV-I 84 W/m 11,0 C 11,6 C 3,2 km/h (1 Bft) 98,00 %
11.09.2017 08:18 11,6 C 18,3 C 96 % 1004,2 hPa 0,0 l/m 0,4 km/h (0 Bft) S 186 0 min 0,000 mm 0,0 UV-I 83 W/m 11,0 C 11,6 C 3,2 km/h (1 Bft) 98,00 %
11.09.2017 08:20 11,6 C 18,3 C 96 % 1004,2 hPa 0,0 l/m 0,0 km/h (0 Bft) S 186 0 min 0,000 mm 0,0 UV-I 82 W/m 11,0 C 11,6 C 0,0 km/h (0 Bft) 97,56 %
11.09.2017 08:22 11,6 C 18,3 C 96 % 1004,1 hPa 0,0 l/m 0,0 km/h (0 Bft) S 186 0 min 0,000 mm 0,0 UV-I 83 W/m 11,0 C 11,6 C 0,0 km/h (0 Bft) 96,00 %
11.09.2017 08:24 11,6 C 18,3 C 96 % 1004,1 hPa 0,0 l/m 0,0 km/h (0 Bft) S 186 0 min 0,000 mm 0,0 UV-I 83 W/m 11,0 C 11,6 C 0,0 km/h (0 Bft) 100,00 %
11.09.2017 08:26 11,6 C 18,3 C 96 % 1003,9 hPa 0,0 l/m 0,0 km/h (0 Bft) S 186 0 min 0,000 mm 0,0 UV-I 85 W/m 11,0 C 11,6 C 0,0 km/h (0 Bft) 95,83 %
11.09.2017 08:28 11,6 C 18,3 C 96 % 1003,9 hPa 0,0 l/m 0,0 km/h (0 Bft) S 186 0 min 0,000 mm 0,0 UV-I 92 W/m 11,0 C 11,6 C 0,0 km/h (0 Bft) 95,74 %
11.09.2017 08:30 11,7 C 18,3 C 96 % 1003,8 hPa 0,0 l/m 0,0 km/h (0 Bft) S 186 0 min 0,000 mm 0,0 UV-I 102 W/m 11,1 C 11,7 C 0,0 km/h (0 Bft) 93,62 %
11.09.2017 08:32 11,7 C 18,3 C 97 % 1003,8 hPa 0,0 l/m 0,0 km/h (0 Bft) S 186 0 min 0,000 mm 0,0 UV-I 114 W/m 11,2 C 11,7 C 0,0 km/h (0 Bft) 96,00 %
11.09.2017 08:34 11,7 C 18,3 C 97 % 1003,9 hPa 0,0 l/m 0,0 km/h (0 Bft) S 186 0 min 0,000 mm 0,0 UV-I 126 W/m 11,2 C 11,7 C 0,0 km/h (0 Bft) 90,00 %
11.09.2017 08:36 11,8 C 18,3 C 97 % 1003,9 hPa 0,0 l/m 0,0 km/h (0 Bft) S 186 0 min 0,000 mm 0,0 UV-I 131 W/m 11,3 C 11,8 C 0,0 km/h (0 Bft) 94,87 %
11.09.2017 08:38 11,8 C 18,3 C 96 % 1004,0 hPa 0,0 l/m 0,0 km/h (0 Bft) S 186 0 min 0,000 mm 0,0 UV-I 130 W/m 11,2 C 11,8 C 0,0 km/h (0 Bft) 96,00 %
11.09.2017 08:40 11,8 C 18,3 C 96 % 1004,0 hPa 0,0 l/m 0,0 km/h (0 Bft) S 186 0 min 0,000 mm 0,0 UV-I 134 W/m 11,2 C 11,8 C 1,6 km/h (1 Bft) 96,00 %
11.09.2017 08:42 11,9 C 18,3 C 96 % 1004,0 hPa 0,0 l/m 0,0 km/h (0 Bft) S 186 0 min 0,000 mm 0,0 UV-I 136 W/m 11,3 C 11,9 C 0,0 km/h (0 Bft) 94,00 %
11.09.2017 08:44 11,9 C 18,3 C 96 % 1004,0 hPa 0,0 l/m 0,0 km/h (0 Bft) S 186 0 min 0,000 mm 0,0 UV-I 139 W/m 11,3 C 11,9 C 0,0 km/h (0 Bft) 92,11 %
11.09.2017 08:46 12,0 C 18,3 C 96 % 1004,0 hPa 0,0 l/m 0,4 km/h (0 Bft) S 186 0 min 0,000 mm 0,0 UV-I 141 W/m 11,4 C 12,0 C 1,6 km/h (1 Bft) 94,34 %
11.09.2017 08:48 12,1 C 18,3 C 96 % 1004,0 hPa 0,0 l/m 0,1 km/h (0 Bft) S 186 0 min 0,000 mm 0,0 UV-I 134 W/m 11,5 C 12,1 C 1,6 km/h (1 Bft) 93,62 %
11.09.2017 08:50 12,1 C 18,3 C 96 % 1004,0 hPa 0,0 l/m 0,0 km/h (0 Bft) S 186 0 min 0,000 mm 0,0 UV-I 126 W/m 11,5 C 12,1 C 0,0 km/h (0 Bft) 95,74 %
11.09.2017 08:52 12,1 C 18,3 C 96 % 1004,1 hPa 0,0 l/m 0,0 km/h (0 Bft) S 186 0 min 0,000 mm 0,4 UV-I 130 W/m 11,5 C 12,1 C 0,0 km/h (0 Bft) 95,12 %
11.09.2017 08:54 12,2 C 18,3 C 96 % 1004,1 hPa 0,0 l/m 0,0 km/h (0 Bft) S 186 0 min 0,000 mm 0,5 UV-I 138 W/m 11,6 C 12,2 C 0,0 km/h (0 Bft) 96,00 %
11.09.2017 08:56 12,3 C 18,3 C 96 % 1004,1 hPa 0,0 l/m 0,0 km/h (0 Bft) S 186 0 min 0,000 mm 0,5 UV-I 139 W/m 11,7 C 12,3 C 1,6 km/h (1 Bft) 95,74 %
11.09.2017 08:58 12,4 C 18,3 C 96 % 1004,1 hPa 0,0 l/m 0,0 km/h (0 Bft) S 186 0 min 0,000 mm 0,5 UV-I 139 W/m 11,8 C 12,4 C 0,0 km/h (0 Bft) 92,59 %
11.09.2017 09:00 12,4 C 18,3 C 96 % 1004,1 hPa 0,0 l/m 1,6 km/h (1 Bft) W 261 0 min 0,051 mm 0,5 UV-I 140 W/m 11,8 C 12,4 C 4,8 km/h (1 Bft) 95,71 %
11.09.2017 09:02 12,4 C 18,3 C 96 % 1004,0 hPa 0,0 l/m 2,2 km/h (1 Bft) W 261 0 min 0,000 mm 0,5 UV-I 142 W/m 11,8 C 12,4 C 3,2 km/h (1 Bft) 97,87 %
11.09.2017 09:04 12,4 C 18,3 C 96 % 1003,9 hPa 0,0 l/m 1,9 km/h (1 Bft) W 261 0 min 0,000 mm 0,5 UV-I 144 W/m 11,8 C 12,4 C 3,2 km/h (1 Bft) 97,22 %
11.09.2017 09:06 12,4 C 18,3 C 96 % 1004,0 hPa 0,0 l/m 2,8 km/h (1 Bft) W-SW 257 0 min 0,000 mm 0,5 UV-I 141 W/m 11,8 C 12,4 C 4,8 km/h (1 Bft) 96,00 %
11.09.2017 09:08 12,4 C 18,3 C 95 % 1004,0 hPa 0,0 l/m 2,9 km/h (1 Bft) W-SW 257 0 min 0,000 mm 0,5 UV-I 136 W/m 11,6 C 12,4 C 4,8 km/h (1 Bft) 92,31 %
11.09.2017 09:10 12,5 C 18,3 C 96 % 1004,0 hPa 0,0 l/m 2,3 km/h (1 Bft) W-SW 249 0 min 0,000 mm 0,5 UV-I 131 W/m 11,9 C 12,5 C 4,8 km/h (1 Bft) 100,00 %
11.09.2017 09:12 12,5 C 18,3 C 95 % 1004,0 hPa 0,0 l/m 0,0 km/h (0 Bft) W-SW 249 0 min 0,000 mm 0,5 UV-I 137 W/m 11,7 C 12,5 C 1,6 km/h (1 Bft) 98,18 %
11.09.2017 09:14 12,6 C 18,3 C 95 % 1004,0 hPa 0,0 l/m 0,0 km/h (0 Bft) W-SW 249 0 min 0,000 mm 0,5 UV-I 151 W/m 11,8 C 12,6 C 0,0 km/h (0 Bft) 97,92 %
11.09.2017 09:16 12,6 C 18,3 C 95 % 1004,0 hPa 0,0 l/m 2,1 km/h (1 Bft) W-SW 249 0 min 0,000 mm 0,6 UV-I 176 W/m 11,8 C 12,6 C 6,4 km/h (2 Bft) 100,00 %
11.09.2017 09:18 12,6 C 18,3 C 95 % 1004,0 hPa 0,0 l/m 3,0 km/h (1 Bft) W 273 0 min 0,000 mm 0,6 UV-I 179 W/m 11,8 C 12,6 C 4,8 km/h (1 Bft) 100,00 %
11.09.2017 09:20 12,7 C 18,3 C 95 % 1004,0 hPa 0,0 l/m 2,4 km/h (1 Bft) W 273 0 min 0,000 mm 0,6 UV-I 180 W/m 11,9 C 12,7 C 4,8 km/h (1 Bft) 100,00 %
11.09.2017 09:22 12,7 C 18,3 C 95 % 1004,1 hPa 0,0 l/m 1,0 km/h (0 Bft) SW 223 0 min 0,000 mm 0,6 UV-I 174 W/m 11,9 C 12,7 C 6,4 km/h (2 Bft) 97,73 %
11.09.2017 09:24 12,7 C 18,3 C 95 % 1004,1 hPa 0,0 l/m 5,2 km/h (1 Bft) SW 225 0 min 0,000 mm 0,6 UV-I 181 W/m 11,9 C 12,7 C 8,0 km/h (2 Bft) 98,11 %
11.09.2017 09:26 12,8 C 18,3 C 94 % 1004,2 hPa 0,0 l/m 4,6 km/h (1 Bft) W-SW 248 0 min 0,000 mm 0,7 UV-I 187 W/m 11,9 C 12,8 C 8,0 km/h (2 Bft) 100,00 %
11.09.2017 09:28 12,8 C 18,3 C 94 % 1004,3 hPa 0,0 l/m 3,0 km/h (1 Bft) W-SW 257 0 min 0,000 mm 0,7 UV-I 197 W/m 11,9 C 12,8 C 6,4 km/h (2 Bft) 100,00 %
11.09.2017 09:30 12,8 C 18,3 C 94 % 1004,1 hPa 0,0 l/m 1,2 km/h (1 Bft) W-SW 258 0 min 0,000 mm 0,7 UV-I 200 W/m 11,9 C 12,8 C 3,2 km/h (1 Bft) 98,00 %
11.09.2017 09:32 12,8 C 18,3 C 94 % 1004,2 hPa 0,0 l/m 3,1 km/h (1 Bft) W-SW 258 0 min 0,000 mm 0,7 UV-I 193 W/m 11,9 C 12,8 C 4,8 km/h (1 Bft) 94,74 %
11.09.2017 09:34 12,8 C 18,3 C 93 % 1004,1 hPa 0,0 l/m 1,8 km/h (1 Bft) W-SW 258 0 min 0,000 mm 0,7 UV-I 191 W/m 11,7 C 12,8 C 4,8 km/h (1 Bft) 100,00 %
11.09.2017 09:36 12,9 C 18,3 C 93 % 1003,9 hPa 0,0 l/m 2,3 km/h (1 Bft) W-SW 258 0 min 0,000 mm 0,6 UV-I 187 W/m 11,8 C 12,9 C 4,8 km/h (1 Bft) 100,00 %
11.09.2017 09:38 13,0 C 18,3 C 94 % 1003,9 hPa 0,0 l/m 2,4 km/h (1 Bft) W-SW 257 0 min 0,000 mm 0,7 UV-I 205 W/m 12,1 C 13,0 C 3,2 km/h (1 Bft) 98,11 %
11.09.2017 09:40 13,1 C 18,3 C 93 % 1003,9 hPa 0,0 l/m 0,9 km/h (0 Bft) W-SW 258 0 min 0,000 mm 0,8 UV-I 220 W/m 12,0 C 13,1 C 4,8 km/h (1 Bft) 100,00 %
11.09.2017 09:42 13,2 C 18,3 C 93 % 1004,0 hPa 0,0 l/m 1,3 km/h (1 Bft) W-SW 258 0 min 0,000 mm 0,9 UV-I 267 W/m 12,1 C 13,2 C 3,2 km/h (1 Bft) 100,00 %
11.09.2017 09:44 13,2 C 18,3 C 93 % 1004,0 hPa 0,0 l/m 0,0 km/h (0 Bft) W-SW 258 2 min 0,000 mm 1,0 UV-I 324 W/m 12,1 C 13,2 C 1,6 km/h (1 Bft) 100,00 %
11.09.2017 09:46 13,3 C 18,3 C 93 % 1004,0 hPa 0,0 l/m 4,1 km/h (1 Bft) W-SW 254 2 min 0,000 mm 1,2 UV-I 346 W/m 12,2 C 13,3 C 6,4 km/h (2 Bft) 100,00 %
11.09.2017 09:48 13,4 C 18,3 C 93 % 1004,0 hPa 0,0 l/m 2,9 km/h (1 Bft) W-SW 246 2 min 0,000 mm 1,3 UV-I 380 W/m 12,3 C 13,4 C 6,4 km/h (2 Bft) 100,00 %
11.09.2017 09:50 13,5 C 18,3 C 91 % 1003,9 hPa 0,0 l/m 1,3 km/h (1 Bft) W-SW 246 2 min 0,000 mm 1,3 UV-I 373 W/m 12,1 C 13,5 C 3,2 km/h (1 Bft) 100,00 %
11.09.2017 09:52 13,4 C 18,3 C 91 % 1003,9 hPa 0,0 l/m 0,2 km/h (0 Bft) W-SW 246 2 min 0,000 mm 1,3 UV-I 344 W/m 12,0 C 13,4 C 1,6 km/h (1 Bft) 100,00 %
11.09.2017 09:54 13,6 C 18,3 C 91 % 1003,9 hPa 0,0 l/m 4,1 km/h (1 Bft) W-SW 246 2 min 0,000 mm 1,4 UV-I 380 W/m 12,2 C 13,6 C 6,4 km/h (2 Bft) 100,00 %
11.09.2017 09:56 13,8 C 18,3 C 91 % 1004,0 hPa 0,0 l/m 4,8 km/h (1 Bft) S-SW 212 2 min 0,000 mm 1,5 UV-I 444 W/m 12,4 C 13,8 C 6,4 km/h (2 Bft) 100,00 %
11.09.2017 09:58 13,9 C 18,3 C 90 % 1004,0 hPa 0,0 l/m 3,0 km/h (1 Bft) SW 229 2 min 0,000 mm 1,4 UV-I 410 W/m 12,3 C 13,9 C 6,4 km/h (2 Bft) 100,00 %
11.09.2017 10:00 13,9 C 18,3 C 88 % 1004,0 hPa 0,0 l/m 5,2 km/h (1 Bft) SW 229 2 min 0,127 mm 1,4 UV-I 380 W/m 11,9 C 13,9 C 8,0 km/h (2 Bft) 100,00 %
11.09.2017 10:02 13,8 C 18,3 C 88 % 1004,0 hPa 0,0 l/m 4,9 km/h (1 Bft) W-SW 237 2 min 0,000 mm 1,4 UV-I 353 W/m 11,8 C 13,8 C 8,0 km/h (2 Bft) 100,00 %
11.09.2017 10:04 13,8 C 18,3 C 89 % 1004,2 hPa 0,0 l/m 4,7 km/h (1 Bft) W-SW 238 2 min 0,000 mm 1,3 UV-I 314 W/m 12,0 C 13,8 C 6,4 km/h (2 Bft) 100,00 %
11.09.2017 10:06 13,7 C 18,3 C 89 % 1004,2 hPa 0,0 l/m 5,3 km/h (1 Bft) W-SW 238 0 min 0,000 mm 1,2 UV-I 289 W/m 11,9 C 13,7 C 8,0 km/h (2 Bft) 100,00 %
11.09.2017 10:08 13,7 C 18,3 C 89 % 1004,2 hPa 0,0 l/m 6,0 km/h (2 Bft) SW 215 0 min 0,000 mm 1,2 UV-I 266 W/m 11,9 C 13,7 C 9,7 km/h (2 Bft) 100,00 %
11.09.2017 10:10 13,8 C 18,3 C 89 % 1004,1 hPa 0,0 l/m 4,6 km/h (1 Bft) SW 221 0 min 0,000 mm 1,3 UV-I 280 W/m 12,0 C 13,8 C 8,0 km/h (2 Bft) 100,00 %
11.09.2017 10:12 13,9 C 18,3 C 89 % 1004,1 hPa 0,0 l/m 3,9 km/h (1 Bft) S 182 2 min 0,000 mm 1,4 UV-I 308 W/m 12,1 C 13,9 C 8,0 km/h (2 Bft) 98,11 %
11.09.2017 10:14 14,0 C 18,3 C 89 % 1004,1 hPa 0,0 l/m 5,3 km/h (1 Bft) SW 236 0 min 0,000 mm 1,3 UV-I 277 W/m 12,2 C 14,0 C 11,3 km/h (2 Bft) 98,00 %
11.09.2017 10:16 14,1 C 18,3 C 89 % 1004,1 hPa 0,0 l/m 3,5 km/h (1 Bft) W-SW 238 0 min 0,000 mm 1,3 UV-I 260 W/m 12,3 C 14,1 C 6,4 km/h (2 Bft) 100,00 %
11.09.2017 10:18 14,2 C 18,3 C 89 % 1004,2 hPa 0,0 l/m 4,2 km/h (1 Bft) W-SW 250 0 min 0,000 mm 1,3 UV-I 273 W/m 12,4 C 14,2 C 8,0 km/h (2 Bft) 100,00 %
11.09.2017 10:20 14,3 C 18,3 C 88 % 1004,3 hPa 0,0 l/m 8,6 km/h (2 Bft) SW 216 0 min 0,000 mm 1,2 UV-I 246 W/m 12,3 C 13,0 C 11,3 km/h (2 Bft) 100,00 %
11.09.2017 10:22 14,2 C 18,3 C 88 % 1004,3 hPa 0,0 l/m 7,9 km/h (2 Bft) SW 235 0 min 0,000 mm 1,2 UV-I 217 W/m 12,2 C 13,3 C 12,9 km/h (3 Bft) 100,00 %
11.09.2017 10:24 14,2 C 18,3 C 87 % 1004,4 hPa 0,0 l/m 6,0 km/h (2 Bft) W-SW 246 0 min 0,000 mm 1,2 UV-I 223 W/m 12,1 C 14,2 C 11,3 km/h (2 Bft) 98,08 %
11.09.2017 10:26 14,1 C 18,3 C 87 % 1004,4 hPa 0,0 l/m 5,8 km/h (2 Bft) W-SW 244 0 min 0,000 mm 1,2 UV-I 236 W/m 12,0 C 14,1 C 8,0 km/h (2 Bft) 97,62 %
11.09.2017 10:28 14,1 C 18,3 C 87 % 1004,4 hPa 0,0 l/m 5,0 km/h (1 Bft) W 265 0 min 0,000 mm 1,3 UV-I 245 W/m 12,0 C 14,1 C 11,3 km/h (2 Bft) 93,62 %
11.09.2017 10:30 14,1 C 18,3 C 88 % 1004,4 hPa 0,0 l/m 4,8 km/h (1 Bft) W-SW 254 0 min 0,000 mm 1,3 UV-I 254 W/m 12,1 C 14,1 C 6,4 km/h (2 Bft) 97,87 %
11.09.2017 10:32 14,2 C 18,3 C 88 % 1004,4 hPa 0,0 l/m 5,8 km/h (2 Bft) W-SW 247 0 min 0,000 mm 1,4 UV-I 262 W/m 12,2 C 14,2 C 11,3 km/h (2 Bft) 97,73 %
11.09.2017 10:34 14,2 C 18,3 C 87 % 1004,4 hPa 0,0 l/m 5,5 km/h (1 Bft) W-SW 251 0 min 0,000 mm 1,4 UV-I 286 W/m 12,1 C 14,2 C 9,7 km/h (2 Bft) 98,31 %
11.09.2017 10:36 14,3 C 18,3 C 87 % 1004,3 hPa 0,0 l/m 4,5 km/h (1 Bft) W 261 0 min 0,000 mm 1,5 UV-I 302 W/m 12,2 C 14,3 C 6,4 km/h (2 Bft) 97,87 %
11.09.2017 10:38 14,3 C 18,3 C 88 % 1004,4 hPa 0,0 l/m 5,8 km/h (2 Bft) W 262 0 min 0,000 mm 1,4 UV-I 277 W/m 12,3 C 14,3 C 12,9 km/h (3 Bft) 97,56 %
11.09.2017 10:40 14,4 C 18,3 C 87 % 1004,3 hPa 0,0 l/m 6,0 km/h (2 Bft) S-SW 205 0 min 0,000 mm 1,4 UV-I 271 W/m 12,3 C 14,4 C 9,7 km/h (2 Bft) 98,00 %
11.09.2017 10:42 14,3 C 18,3 C 86 % 1004,3 hPa 0,0 l/m 8,4 km/h (2 Bft) W-SW 237 0 min 0,000 mm 1,5 UV-I 302 W/m 12,0 C 13,1 C 11,3 km/h (2 Bft) 95,74 %
11.09.2017 10:44 14,3 C 18,3 C 86 % 1004,2 hPa 0,0 l/m 4,9 km/h (1 Bft) W-SW 238 0 min 0,000 mm 1,6 UV-I 330 W/m 12,0 C 14,3 C 8,0 km/h (2 Bft) 96,00 %
11.09.2017 10:46 14,3 C 18,3 C 86 % 1004,2 hPa 0,0 l/m 6,4 km/h (2 Bft) W-SW 254 0 min 0,000 mm 1,7 UV-I 329 W/m 12,0 C 14,3 C 11,3 km/h (2 Bft) 100,00 %
11.09.2017 10:48 14,4 C 18,3 C 86 % 1004,2 hPa 0,0 l/m 7,0 km/h (2 Bft) W-SW 247 0 min 0,000 mm 1,7 UV-I 335 W/m 12,1 C 14,1 C 11,3 km/h (2 Bft) 98,00 %
11.09.2017 10:50 14,4 C 18,3 C 86 % 1004,3 hPa 0,0 l/m 5,2 km/h (1 Bft) W 281 0 min 0,000 mm 1,7 UV-I 333 W/m 12,1 C 14,4 C 8,0 km/h (2 Bft) 97,37 %
11.09.2017 10:52 14,4 C 18,3 C 86 % 1004,3 hPa 0,0 l/m 4,2 km/h (1 Bft) SW 231 0 min 0,000 mm 1,7 UV-I 335 W/m 12,1 C 14,4 C 6,4 km/h (2 Bft) 98,21 %
11.09.2017 10:54 14,6 C 18,3 C 86 % 1004,3 hPa 0,0 l/m 3,7 km/h (1 Bft) W-SW 241 0 min 0,000 mm 1,7 UV-I 337 W/m 12,3 C 14,6 C 8,0 km/h (2 Bft) 96,30 %
11.09.2017 10:56 14,6 C 18,3 C 87 % 1004,3 hPa 0,0 l/m 4,9 km/h (1 Bft) S-SW 204 0 min 0,000 mm 1,7 UV-I 338 W/m 12,5 C 14,6 C 6,4 km/h (2 Bft) 100,00 %
11.09.2017 10:58 14,7 C 18,3 C 86 % 1004,4 hPa 0,0 l/m 6,1 km/h (2 Bft) S-SW 208 0 min 0,000 mm 1,7 UV-I 331 W/m 12,4 C 14,7 C 11,3 km/h (2 Bft) 100,00 %
11.09.2017 11:00 14,7 C 18,3 C 85 % 1004,3 hPa 0,0 l/m 6,8 km/h (2 Bft) S-SW 197 0 min 0,153 mm 1,7 UV-I 325 W/m 12,2 C 14,5 C 9,7 km/h (2 Bft) 97,87 %
11.09.2017 11:02 14,7 C 18,3 C 85 % 1004,3 hPa 0,0 l/m 4,8 km/h (1 Bft) S-SW 209 0 min 0,000 mm 1,8 UV-I 326 W/m 12,2 C 14,7 C 9,7 km/h (2 Bft) 97,87 %
11.09.2017 11:04 14,7 C 18,3 C 85 % 1004,3 hPa 0,0 l/m 5,8 km/h (2 Bft) SW 232 0 min 0,000 mm 1,7 UV-I 322 W/m 12,2 C 14,7 C 9,7 km/h (2 Bft) 100,00 %
11.09.2017 11:06 14,7 C 18,3 C 85 % 1004,3 hPa 0,0 l/m 6,9 km/h (2 Bft) S 176 0 min 0,000 mm 1,8 UV-I 326 W/m 12,2 C 14,4 C 11,3 km/h (2 Bft) 98,00 %
11.09.2017 11:08 14,6 C 18,3 C 84 % 1004,3 hPa 0,0 l/m 5,4 km/h (1 Bft) SW 236 0 min 0,000 mm 1,8 UV-I 330 W/m 11,9 C 14,6 C 9,7 km/h (2 Bft) 100,00 %
11.09.2017 11:10 14,7 C 18,3 C 85 % 1004,3 hPa 0,0 l/m 7,3 km/h (2 Bft) S-SW 212 0 min 0,000 mm 1,8 UV-I 328 W/m 12,2 C 14,2 C 9,7 km/h (2 Bft) 100,00 %
11.09.2017 11:12 14,8 C 18,3 C 85 % 1004,2 hPa 0,0 l/m 6,4 km/h (2 Bft) S-SW 205 0 min 0,000 mm 1,8 UV-I 327 W/m 12,3 C 14,8 C 9,7 km/h (2 Bft) 97,92 %
11.09.2017 11:14 14,8 C 18,3 C 85 % 1004,2 hPa 0,0 l/m 5,7 km/h (1 Bft) W-SW 258 0 min 0,000 mm 1,8 UV-I 328 W/m 12,3 C 14,8 C 11,3 km/h (2 Bft) 100,00 %
11.09.2017 11:16 14,9 C 18,3 C 85 % 1004,2 hPa 0,0 l/m 6,8 km/h (2 Bft) W-SW 246 0 min 0,000 mm 1,8 UV-I 328 W/m 12,4 C 14,7 C 11,3 km/h (2 Bft) 100,00 %
11.09.2017 11:18 14,9 C 18,3 C 84 % 1004,2 hPa 0,0 l/m 5,7 km/h (1 Bft) W 269 0 min 0,000 mm 1,8 UV-I 326 W/m 12,2 C 14,9 C 9,7 km/h (2 Bft) 97,37 %
11.09.2017 11:20 14,9 C 18,3 C 83 % 1004,1 hPa 0,0 l/m 7,7 km/h (2 Bft) W 267 0 min 0,000 mm 1,9 UV-I 329 W/m 12,0 C 14,2 C 11,3 km/h (2 Bft) 100,00 %
11.09.2017 11:22 14,8 C 18,3 C 83 % 1004,1 hPa 0,0 l/m 7,6 km/h (2 Bft) W-SW 258 0 min 0,000 mm 1,9 UV-I 331 W/m 11,9 C 14,1 C 11,3 km/h (2 Bft) 100,00 %
11.09.2017 11:24 14,8 C 18,3 C 84 % 1004,1 hPa 0,0 l/m 4,0 km/h (1 Bft) SW 230 0 min 0,000 mm 1,9 UV-I 336 W/m 12,1 C 14,8 C 6,4 km/h (2 Bft) 100,00 %
11.09.2017 11:26 14,8 C 18,3 C 84 % 1004,1 hPa 0,0 l/m 5,4 km/h (1 Bft) S-SW 213 0 min 0,000 mm 1,9 UV-I 335 W/m 12,1 C 14,8 C 9,7 km/h (2 Bft) 97,37 %
11.09.2017 11:28 14,9 C 18,3 C 83 % 1004,1 hPa 0,0 l/m 4,4 km/h (1 Bft) W-SW 238 0 min 0,000 mm 1,9 UV-I 326 W/m 12,0 C 14,9 C 8,0 km/h (2 Bft) 97,87 %
11.09.2017 11:30 15,0 C 18,3 C 84 % 1004,1 hPa 0,0 l/m 5,6 km/h (1 Bft) S 180 0 min 0,000 mm 1,9 UV-I 320 W/m 12,3 C 15,0 C 9,7 km/h (2 Bft) 100,00 %
11.09.2017 11:32 15,0 C 18,3 C 83 % 1004,0 hPa 0,0 l/m 4,0 km/h (1 Bft) W-SW 240 0 min 0,000 mm 1,8 UV-I 312 W/m 12,1 C 15,0 C 11,3 km/h (2 Bft) 100,00 %
11.09.2017 11:34 15,1 C 18,3 C 83 % 1004,0 hPa 0,0 l/m 3,3 km/h (1 Bft) W-NW 286 0 min 0,000 mm 1,8 UV-I 294 W/m 12,2 C 15,1 C 6,4 km/h (2 Bft) 100,00 %
11.09.2017 11:36 15,1 C 18,3 C 82 % 1004,0 hPa 0,0 l/m 4,2 km/h (1 Bft) W 264 0 min 0,000 mm 1,7 UV-I 274 W/m 12,0 C 15,1 C 6,4 km/h (2 Bft) 97,56 %
11.09.2017 11:38 15,2 C 18,3 C 83 % 1004,1 hPa 0,0 l/m 6,4 km/h (2 Bft) SW 219 0 min 0,000 mm 1,6 UV-I 263 W/m 12,3 C 15,2 C 11,3 km/h (2 Bft) 100,00 %
11.09.2017 11:40 15,2 C 18,3 C 81 % 1004,1 hPa 0,0 l/m 3,9 km/h (1 Bft) SW 216 0 min 0,000 mm 1,6 UV-I 258 W/m 12,0 C 15,2 C 6,4 km/h (2 Bft) 100,00 %
11.09.2017 11:42 15,2 C 18,3 C 79 % 1004,1 hPa 0,0 l/m 5,6 km/h (1 Bft) W-SW 245 0 min 0,000 mm 1,5 UV-I 249 W/m 11,6 C 15,2 C 9,7 km/h (2 Bft) 100,00 %
11.09.2017 11:44 15,1 C 18,3 C 79 % 1004,1 hPa 0,0 l/m 4,0 km/h (1 Bft) W-NW 282 0 min 0,000 mm 1,5 UV-I 241 W/m 11,5 C 15,1 C 4,8 km/h (1 Bft) 98,00 %
11.09.2017 11:46 15,2 C 18,3 C 80 % 1004,0 hPa 0,0 l/m 3,7 km/h (1 Bft) W-SW 245 0 min 0,000 mm 1,4 UV-I 237 W/m 11,8 C 15,2 C 6,4 km/h (2 Bft) 98,00 %
11.09.2017 11:48 15,2 C 18,3 C 80 % 1003,9 hPa 0,0 l/m 5,8 km/h (2 Bft) S-SW 212 0 min 0,000 mm 1,4 UV-I 235 W/m 11,8 C 15,2 C 8,0 km/h (2 Bft) 100,00 %
11.09.2017 11:50 15,2 C 18,3 C 80 % 1003,9 hPa 0,0 l/m 4,6 km/h (1 Bft) W-SW 254 0 min 0,000 mm 1,3 UV-I 227 W/m 11,8 C 15,2 C 6,4 km/h (2 Bft) 100,00 %
11.09.2017 11:52 15,1 C 18,3 C 81 % 1003,9 hPa 0,0 l/m 4,4 km/h (1 Bft) W-SW 248 0 min 0,000 mm 1,3 UV-I 221 W/m 11,9 C 15,1 C 6,4 km/h (2 Bft) 100,00 %
11.09.2017 11:54 15,1 C 18,3 C 81 % 1003,9 hPa 0,0 l/m 3,6 km/h (1 Bft) SW 228 0 min 0,000 mm 1,3 UV-I 219 W/m 11,9 C 15,1 C 6,4 km/h (2 Bft) 100,00 %
11.09.2017 11:56 15,1 C 18,3 C 81 % 1003,9 hPa 0,0 l/m 4,2 km/h (1 Bft) W-SW 240 0 min 0,000 mm 1,3 UV-I 218 W/m 11,9 C 15,1 C 6,4 km/h (2 Bft) 100,00 %
11.09.2017 11:59 15,2 C 18,3 C 81 % 1003,9 hPa 0,0 l/m 3,6 km/h (1 Bft) W-SW 251 0 min 0,000 mm 1,3 UV-I 210 W/m 12,0 C 15,2 C 6,4 km/h (2 Bft) 100,00 %
11.09.2017 12:00 15,1 C 18,3 C 81 % 1003,9 hPa 0,0 l/m 5,4 km/h (1 Bft) W-SW 251 0 min 0,152 mm 1,2 UV-I 198 W/m 11,9 C 15,1 C 8,0 km/h (2 Bft) 100,00 %
11.09.2017 12:02 15,1 C 18,3 C 81 % 1003,9 hPa 0,0 l/m 5,4 km/h (1 Bft) W 263 0 min 0,000 mm 1,1 UV-I 189 W/m 11,9 C 15,1 C 9,7 km/h (2 Bft) 100,00 %
11.09.2017 12:04 15,1 C 18,3 C 81 % 1003,9 hPa 0,0 l/m 4,0 km/h (1 Bft) W 263 0 min 0,000 mm 1,1 UV-I 181 W/m 11,9 C 15,1 C 6,4 km/h (2 Bft) 100,00 %
11.09.2017 12:06 15,1 C 18,3 C 81 % 1003,9 hPa 0,0 l/m 3,6 km/h (1 Bft) W 263 0 min 0,000 mm 1,0 UV-I 178 W/m 11,9 C 15,1 C 4,8 km/h (1 Bft) 100,00 %
11.09.2017 12:08 15,0 C 18,3 C 81 % 1003,8 hPa 0,0 l/m 4,5 km/h (1 Bft) W-SW 255 0 min 0,000 mm 1,0 UV-I 178 W/m 11,8 C 15,0 C 6,4 km/h (2 Bft) 100,00 %
11.09.2017 12:10 15,0 C 18,3 C 82 % 1003,7 hPa 0,0 l/m 4,5 km/h (1 Bft) W-NW 285 0 min 0,000 mm 1,1 UV-I 180 W/m 12,0 C 15,0 C 9,7 km/h (2 Bft) 95,74 %
11.09.2017 12:12 15,1 C 18,3 C 82 % 1003,6 hPa 0,0 l/m 2,5 km/h (1 Bft) W-NW 284 0 min 0,000 mm 1,1 UV-I 182 W/m 12,0 C 15,1 C 3,2 km/h (1 Bft) 96,00 %
11.09.2017 12:14 15,1 C 18,3 C 81 % 1003,6 hPa 0,0 l/m 2,3 km/h (1 Bft) W 280 0 min 0,000 mm 1,1 UV-I 181 W/m 11,9 C 15,1 C 4,8 km/h (1 Bft) 97,87 %
11.09.2017 12:16 15,2 C 18,3 C 80 % 1003,7 hPa 0,0 l/m 4,6 km/h (1 Bft) SW 232 0 min 0,000 mm 1,1 UV-I 181 W/m 11,8 C 15,2 C 6,4 km/h (2 Bft) 98,00 %
11.09.2017 12:18 15,2 C 18,3 C 80 % 1003,6 hPa 0,0 l/m 5,3 km/h (1 Bft) S-SW 212 0 min 0,000 mm 1,1 UV-I 179 W/m 11,8 C 15,2 C 8,0 km/h (2 Bft) 97,73 %
11.09.2017 12:20 15,2 C 18,3 C 81 % 1003,7 hPa 0,0 l/m 4,5 km/h (1 Bft) W 271 0 min 0,000 mm 1,1 UV-I 180 W/m 12,0 C 15,2 C 6,4 km/h (2 Bft) 97,62 %
11.09.2017 12:22 15,2 C 18,3 C 82 % 1003,6 hPa 0,0 l/m 4,6 km/h (1 Bft) W 259 0 min 0,000 mm 1,1 UV-I 183 W/m 12,1 C 15,2 C 6,4 km/h (2 Bft) 97,37 %
11.09.2017 12:24 15,2 C 18,3 C 81 % 1003,6 hPa 0,0 l/m 4,0 km/h (1 Bft) SW 232 0 min 0,000 mm 1,1 UV-I 187 W/m 12,0 C 15,2 C 6,4 km/h (2 Bft) 94,34 %
11.09.2017 12:26 15,2 C 18,3 C 81 % 1003,6 hPa 0,0 l/m 5,3 km/h (1 Bft) W-SW 253 0 min 0,000 mm 1,1 UV-I 192 W/m 12,0 C 15,2 C 9,7 km/h (2 Bft) 96,00 %
11.09.2017 12:27 15,2 C 18,3 C 81 % 1003,6 hPa 0,0 l/m 4,7 km/h (1 Bft) W-SW 253 0 min 0,000 mm 1,2 UV-I 194 W/m 12,0 C 15,2 C 6,4 km/h (2 Bft) 95,65 %
11.09.2017 12:30 15,2 C 18,3 C 82 % 1003,5 hPa 0,0 l/m 4,7 km/h (1 Bft) W 275 0 min 0,000 mm 1,2 UV-I 207 W/m 12,1 C 15,2 C 6,4 km/h (2 Bft) 93,75 %
11.09.2017 12:32 15,2 C 18,3 C 81 % 1003,5 hPa 0,0 l/m 5,1 km/h (1 Bft) W-SW 253 0 min 0,000 mm 1,3 UV-I 212 W/m 12,0 C 15,2 C 8,0 km/h (2 Bft) 95,45 %
11.09.2017 12:34 15,3 C 18,3 C 81 % 1003,4 hPa 0,0 l/m 4,3 km/h (1 Bft) W-SW 254 0 min 0,000 mm 1,3 UV-I 217 W/m 12,1 C 15,3 C 8,0 km/h (2 Bft) 94,34 %
11.09.2017 12:36 15,3 C 18,3 C 80 % 1003,5 hPa 0,0 l/m 2,9 km/h (1 Bft) W-SW 256 0 min 0,000 mm 1,3 UV-I 218 W/m 11,9 C 15,3 C 4,8 km/h (1 Bft) 96,00 %
11.09.2017 12:38 15,3 C 18,3 C 81 % 1003,5 hPa 0,0 l/m 3,5 km/h (1 Bft) SW 235 0 min 0,000 mm 1,3 UV-I 218 W/m 12,1 C 15,3 C 4,8 km/h (1 Bft) 92,11 %
11.09.2017 12:40 15,4 C 18,3 C 81 % 1003,5 hPa 0,0 l/m 4,5 km/h (1 Bft) W-SW 258 0 min 0,000 mm 1,3 UV-I 218 W/m 12,2 C 15,4 C 9,7 km/h (2 Bft) 96,23 %
11.09.2017 12:42 15,4 C 18,3 C 80 % 1003,5 hPa 0,0 l/m 4,6 km/h (1 Bft) SW 232 0 min 0,000 mm 1,3 UV-I 221 W/m 12,0 C 15,4 C 6,4 km/h (2 Bft) 94,74 %
11.09.2017 12:44 15,4 C 18,3 C 80 % 1003,5 hPa 0,0 l/m 4,6 km/h (1 Bft) W-SW 240 0 min 0,000 mm 1,4 UV-I 228 W/m 12,0 C 15,4 C 6,4 km/h (2 Bft) 96,00 %
11.09.2017 12:46 15,4 C 18,3 C 80 % 1003,5 hPa 0,0 l/m 4,0 km/h (1 Bft) W 264 0 min 0,000 mm 1,4 UV-I 228 W/m 12,0 C 15,4 C 8,0 km/h (2 Bft) 92,45 %
11.09.2017 12:48 15,5 C 18,3 C 80 % 1003,6 hPa 0,0 l/m 8,5 km/h (2 Bft) W 267 0 min 0,000 mm 1,3 UV-I 221 W/m 12,1 C 14,4 C 12,9 km/h (3 Bft) 97,37 %
11.09.2017 12:50 15,5 C 18,3 C 79 % 1003,5 hPa 0,0 l/m 5,5 km/h (1 Bft) W-SW 240 0 min 0,000 mm 1,3 UV-I 218 W/m 11,9 C 15,5 C 8,0 km/h (2 Bft) 96,43 %
11.09.2017 12:52 15,5 C 18,3 C 79 % 1003,6 hPa 0,0 l/m 5,7 km/h (1 Bft) SW 232 0 min 0,000 mm 1,3 UV-I 215 W/m 11,9 C 15,5 C 11,3 km/h (2 Bft) 97,62 %
11.09.2017 12:54 15,5 C 18,3 C 79 % 1003,6 hPa 0,0 l/m 7,3 km/h (2 Bft) W 265 0 min 0,000 mm 1,3 UV-I 214 W/m 11,9 C 15,0 C 11,3 km/h (2 Bft) 96,15 %
11.09.2017 12:56 15,6 C 18,3 C 80 % 1003,6 hPa 0,0 l/m 5,6 km/h (1 Bft) W 259 0 min 0,000 mm 1,3 UV-I 216 W/m 12,2 C 15,6 C 9,7 km/h (2 Bft) 95,24 %
11.09.2017 12:58 15,5 C 18,3 C 80 % 1003,6 hPa 0,0 l/m 5,7 km/h (1 Bft) W-SW 251 0 min 0,000 mm 1,3 UV-I 221 W/m 12,1 C 15,5 C 8,0 km/h (2 Bft) 98,00 %
11.09.2017 13:00 15,4 C 18,3 C 80 % 1003,5 hPa 0,0 l/m 5,7 km/h (1 Bft) SW 231 0 min 0,127 mm 1,3 UV-I 225 W/m 12,0 C 15,4 C 9,7 km/h (2 Bft) 96,00 %
11.09.2017 13:02 15,5 C 18,3 C 80 % 1003,5 hPa 0,0 l/m 3,5 km/h (1 Bft) W 273 0 min 0,000 mm 1,4 UV-I 225 W/m 12,1 C 15,5 C 4,8 km/h (1 Bft) 97,56 %
11.09.2017 13:04 15,5 C 18,3 C 81 % 1003,6 hPa 0,0 l/m 4,8 km/h (1 Bft) W-SW 240 0 min 0,000 mm 1,3 UV-I 218 W/m 12,3 C 15,5 C 8,0 km/h (2 Bft) 96,00 %
11.09.2017 13:06 15,5 C 18,3 C 81 % 1003,5 hPa 0,0 l/m 5,9 km/h (2 Bft) W 269 0 min 0,000 mm 1,3 UV-I 209 W/m 12,3 C 15,5 C 8,0 km/h (2 Bft) 97,73 %
11.09.2017 13:08 15,5 C 18,3 C 80 % 1003,6 hPa 0,0 l/m 6,4 km/h (2 Bft) W 263 0 min 0,000 mm 1,3 UV-I 206 W/m 12,1 C 15,5 C 11,3 km/h (2 Bft) 100,00 %
11.09.2017 13:10 15,5 C 18,3 C 79 % 1003,5 hPa 0,0 l/m 9,1 km/h (2 Bft) W-SW 252 0 min 0,000 mm 1,3 UV-I 206 W/m 11,9 C 14,1 C 14,5 km/h (3 Bft) 97,37 %
11.09.2017 13:12 15,5 C 18,3 C 79 % 1003,5 hPa 0,0 l/m 5,4 km/h (1 Bft) W-SW 258 0 min 0,000 mm 1,3 UV-I 210 W/m 11,9 C 15,5 C 9,7 km/h (2 Bft) 96,92 %
11.09.2017 13:14 15,4 C 18,3 C 78 % 1003,5 hPa 0,0 l/m 6,3 km/h (2 Bft) W 281 0 min 0,000 mm 1,3 UV-I 220 W/m 11,6 C 15,4 C 9,7 km/h (2 Bft) 97,73 %
11.09.2017 13:16 15,4 C 18,3 C 79 % 1003,5 hPa 0,0 l/m 4,4 km/h (1 Bft) W-NW 286 0 min 0,000 mm 1,4 UV-I 236 W/m 11,8 C 15,4 C 9,7 km/h (2 Bft) 98,00 %
11.09.2017 13:18 15,5 C 18,3 C 80 % 1003,5 hPa 0,0 l/m 2,6 km/h (1 Bft) W-SW 254 0 min 0,000 mm 1,5 UV-I 253 W/m 12,1 C 15,5 C 4,8 km/h (1 Bft) 95,83 %
11.09.2017 13:20 15,6 C 18,3 C 80 % 1003,4 hPa 0,0 l/m 3,1 km/h (1 Bft) W-SW 254 0 min 0,000 mm 1,6 UV-I 276 W/m 12,2 C 15,6 C 4,8 km/h (1 Bft) 98,36 %
11.09.2017 13:22 15,7 C 18,3 C 80 % 1003,4 hPa 0,0 l/m 4,0 km/h (1 Bft) W-SW 254 0 min 0,000 mm 1,7 UV-I 283 W/m 12,3 C 15,7 C 6,4 km/h (2 Bft) 97,87 %
11.09.2017 13:24 15,8 C 18,3 C 80 % 1003,4 hPa 0,0 l/m 4,9 km/h (1 Bft) SW 219 0 min 0,000 mm 1,7 UV-I 286 W/m 12,4 C 15,8 C 6,4 km/h (2 Bft) 98,00 %
11.09.2017 13:26 15,9 C 18,3 C 79 % 1003,4 hPa 0,0 l/m 6,2 km/h (2 Bft) W-SW 242 0 min 0,000 mm 1,8 UV-I 300 W/m 12,3 C 15,9 C 9,7 km/h (2 Bft) 97,73 %
11.09.2017 13:28 15,9 C 18,3 C 80 % 1003,3 hPa 0,0 l/m 3,8 km/h (1 Bft) SW 223 0 min 0,000 mm 1,8 UV-I 316 W/m 12,5 C 15,9 C 6,4 km/h (2 Bft) 98,00 %
11.09.2017 13:30 15,9 C 18,3 C 78 % 1003,3 hPa 0,0 l/m 2,9 km/h (1 Bft) SW 223 0 min 0,000 mm 2,0 UV-I 333 W/m 12,1 C 15,9 C 6,4 km/h (2 Bft) 96,23 %
11.09.2017 13:32 15,8 C 18,3 C 79 % 1003,3 hPa 0,0 l/m 2,2 km/h (1 Bft) W-SW 258 0 min 0,000 mm 2,0 UV-I 335 W/m 12,2 C 15,8 C 4,8 km/h (1 Bft) 97,44 %
11.09.2017 13:34 15,9 C 18,3 C 79 % 1003,3 hPa 0,0 l/m 5,8 km/h (2 Bft) W-SW 246 0 min 0,000 mm 2,0 UV-I 327 W/m 12,3 C 15,9 C 11,3 km/h (2 Bft) 96,00 %
11.09.2017 13:36 15,8 C 18,3 C 78 % 1003,4 hPa 0,0 l/m 2,4 km/h (1 Bft) W-SW 248 0 min 0,000 mm 1,9 UV-I 314 W/m 12,0 C 15,8 C 4,8 km/h (1 Bft) 96,00 %
11.09.2017 13:38 15,9 C 18,3 C 80 % 1003,4 hPa 0,0 l/m 4,7 km/h (1 Bft) W-SW 252 0 min 0,000 mm 1,8 UV-I 292 W/m 12,5 C 15,9 C 8,0 km/h (2 Bft) 100,00 %
11.09.2017 13:40 15,9 C 18,3 C 79 % 1003,4 hPa 0,0 l/m 6,4 km/h (2 Bft) W 264 0 min 0,000 mm 1,7 UV-I 278 W/m 12,3 C 15,9 C 9,7 km/h (2 Bft) 98,21 %
11.09.2017 13:42 15,9 C 18,3 C 79 % 1003,4 hPa 0,0 l/m 5,6 km/h (1 Bft) W-NW 283 0 min 0,000 mm 1,7 UV-I 291 W/m 12,3 C 15,9 C 8,0 km/h (2 Bft) 100,00 %
11.09.2017 13:44 15,9 C 18,3 C 79 % 1003,4 hPa 0,0 l/m 5,4 km/h (1 Bft) W-SW 256 0 min 0,000 mm 1,8 UV-I 299 W/m 12,3 C 15,9 C 9,7 km/h (2 Bft) 96,43 %
11.09.2017 13:46 16,0 C 18,3 C 80 % 1003,4 hPa 0,0 l/m 1,6 km/h (1 Bft) W-SW 256 0 min 0,000 mm 1,7 UV-I 293 W/m 12,5 C 16,0 C 3,2 km/h (1 Bft) 100,00 %
11.09.2017 13:48 15,9 C 18,3 C 79 % 1003,4 hPa 0,0 l/m 1,2 km/h (1 Bft) W-SW 256 0 min 0,000 mm 1,7 UV-I 291 W/m 12,3 C 15,9 C 3,2 km/h (1 Bft) 100,00 %
11.09.2017 13:50 16,0 C 18,3 C 80 % 1003,4 hPa 0,0 l/m 0,8 km/h (0 Bft) W-SW 256 0 min 0,000 mm 1,6 UV-I 279 W/m 12,5 C 16,0 C 3,2 km/h (1 Bft) 100,00 %
11.09.2017 13:52 16,1 C 18,3 C 80 % 1003,4 hPa 0,0 l/m 2,5 km/h (1 Bft) S-SW 207 0 min 0,000 mm 1,6 UV-I 272 W/m 12,6 C 16,1 C 4,8 km/h (1 Bft) 100,00 %
11.09.2017 13:54 16,2 C 18,3 C 79 % 1003,4 hPa 0,0 l/m 4,2 km/h (1 Bft) W-SW 242 0 min 0,000 mm 1,6 UV-I 274 W/m 12,6 C 16,2 C 6,4 km/h (2 Bft) 98,00 %
11.09.2017 13:56 16,1 C 18,3 C 79 % 1003,4 hPa 0,0 l/m 2,7 km/h (1 Bft) S-SW 205 0 min 0,000 mm 1,7 UV-I 278 W/m 12,5 C 16,1 C 6,4 km/h (2 Bft) 100,00 %
11.09.2017 13:58 16,2 C 18,3 C 80 % 1003,3 hPa 0,0 l/m 4,9 km/h (1 Bft) S 187 0 min 0,000 mm 1,7 UV-I 284 W/m 12,7 C 16,2 C 12,9 km/h (3 Bft) 100,00 %
11.09.2017 14:00 16,2 C 18,3 C 79 % 1003,2 hPa 0,0 l/m 5,3 km/h (1 Bft) S-SW 200 0 min 0,000 mm 1,8 UV-I 309 W/m 12,6 C 16,2 C 8,0 km/h (2 Bft) 100,00 %
11.09.2017 14:02 16,3 C 18,3 C 79 % 1003,1 hPa 0,0 l/m 1,6 km/h (1 Bft) S-SW 200 0 min 0,152 mm 2,0 UV-I 338 W/m 12,6 C 16,3 C 6,4 km/h (2 Bft) 100,00 %
11.09.2017 14:04 16,4 C 18,3 C 80 % 1003,1 hPa 0,0 l/m 0,3 km/h (0 Bft) S-SW 200 0 min 0,000 mm 1,8 UV-I 295 W/m 12,9 C 16,4 C 1,6 km/h (1 Bft) 100,00 %
11.09.2017 14:06 16,3 C 18,3 C 78 % 1003,2 hPa 0,0 l/m 3,3 km/h (1 Bft) SW 225 0 min 0,000 mm 1,6 UV-I 254 W/m 12,5 C 16,3 C 6,4 km/h (2 Bft) 100,00 %
11.09.2017 14:08 16,3 C 18,3 C 77 % 1003,2 hPa 0,0 l/m 3,1 km/h (1 Bft) SW 225 0 min 0,000 mm 1,6 UV-I 250 W/m 12,3 C 16,3 C 6,4 km/h (2 Bft) 100,00 %
11.09.2017 14:10 16,2 C 18,3 C 77 % 1003,2 hPa 0,0 l/m 1,7 km/h (1 Bft) SW 225 0 min 0,000 mm 1,6 UV-I 253 W/m 12,2 C 16,2 C 3,2 km/h (1 Bft) 98,18 %
11.09.2017 14:12 16,2 C 18,3 C 77 % 1003,2 hPa 0,0 l/m 0,6 km/h (0 Bft) SW 225 0 min 0,000 mm 1,5 UV-I 238 W/m 12,2 C 16,2 C 3,2 km/h (1 Bft) 94,44 %
11.09.2017 14:14 16,2 C 18,3 C 79 % 1003,2 hPa 0,0 l/m 3,5 km/h (1 Bft) W-SW 257 0 min 0,000 mm 1,3 UV-I 214 W/m 12,6 C 16,2 C 4,8 km/h (1 Bft) 96,00 %
11.09.2017 14:16 16,1 C 18,3 C 78 % 1003,1 hPa 0,0 l/m 4,9 km/h (1 Bft) W 260 0 min 0,000 mm 1,3 UV-I 212 W/m 12,3 C 16,1 C 9,7 km/h (2 Bft) 95,74 %
11.09.2017 14:18 16,2 C 18,3 C 78 % 1003,2 hPa 0,0 l/m 5,0 km/h (1 Bft) W 275 0 min 0,000 mm 1,3 UV-I 225 W/m 12,4 C 16,2 C 6,4 km/h (2 Bft) 98,11 %
11.09.2017 14:20 16,2 C 18,3 C 79 % 1003,2 hPa 0,0 l/m 4,7 km/h (1 Bft) SW 223 0 min 0,000 mm 1,3 UV-I 224 W/m 12,6 C 16,2 C 6,4 km/h (2 Bft) 97,56 %
11.09.2017 14:22 16,2 C 18,3 C 79 % 1003,2 hPa 0,0 l/m 4,4 km/h (1 Bft) SW 229 0 min 0,000 mm 1,2 UV-I 206 W/m 12,6 C 16,2 C 6,4 km/h (2 Bft) 97,87 %
11.09.2017 14:24 16,2 C 18,3 C 77 % 1003,3 hPa 0,0 l/m 2,5 km/h (1 Bft) SW 229 0 min 0,000 mm 1,1 UV-I 182 W/m 12,2 C 16,2 C 4,8 km/h (1 Bft) 98,00 %
11.09.2017 14:26 16,3 C 18,3 C 79 % 1003,2 hPa 0,0 l/m 4,2 km/h (1 Bft) SW 234 0 min 0,000 mm 0,9 UV-I 160 W/m 12,6 C 16,3 C 6,4 km/h (2 Bft) 97,73 %
11.09.2017 14:28 16,3 C 18,3 C 78 % 1003,2 hPa 0,0 l/m 4,3 km/h (1 Bft) SW 236 0 min 0,000 mm 0,8 UV-I 148 W/m 12,5 C 16,3 C 6,4 km/h (2 Bft) 97,87 %
11.09.2017 14:30 16,3 C 18,3 C 78 % 1003,3 hPa 0,0 l/m 4,3 km/h (1 Bft) SW 235 0 min 0,000 mm 0,7 UV-I 130 W/m 12,5 C 16,3 C 6,4 km/h (2 Bft) 96,23 %
11.09.2017 14:32 16,2 C 18,3 C 78 % 1003,3 hPa 0,0 l/m 3,1 km/h (1 Bft) W 277 0 min 0,000 mm 0,6 UV-I 120 W/m 12,4 C 16,2 C 4,8 km/h (1 Bft) 97,37 %
11.09.2017 14:34 16,2 C 18,3 C 79 % 1003,2 hPa 0,0 l/m 1,2 km/h (1 Bft) W-NW 292 0 min 0,000 mm 0,7 UV-I 125 W/m 12,6 C 16,2 C 3,2 km/h (1 Bft) 96,00 %
11.09.2017 14:36 16,2 C 18,3 C 80 % 1003,2 hPa 0,0 l/m 0,5 km/h (0 Bft) W-NW 292 0 min 0,000 mm 0,8 UV-I 140 W/m 12,7 C 16,2 C 1,6 km/h (1 Bft) 98,00 %
11.09.2017 14:38 16,2 C 18,3 C 80 % 1003,1 hPa 0,0 l/m 0,9 km/h (0 Bft) W-NW 288 0 min 0,000 mm 0,9 UV-I 166 W/m 12,7 C 16,2 C 4,8 km/h (1 Bft) 97,37 %
11.09.2017 14:40 16,3 C 18,3 C 80 % 1003,1 hPa 0,0 l/m 2,7 km/h (1 Bft) W-NW 294 0 min 0,000 mm 1,2 UV-I 199 W/m 12,8 C 16,3 C 4,8 km/h (1 Bft) 98,11 %
11.09.2017 14:42 16,3 C 18,3 C 79 % 1003,1 hPa 0,0 l/m 2,6 km/h (1 Bft) SW 236 0 min 0,000 mm 1,3 UV-I 221 W/m 12,6 C 16,3 C 6,4 km/h (2 Bft) 95,83 %
11.09.2017 14:44 16,4 C 18,3 C 79 % 1003,2 hPa 0,0 l/m 2,3 km/h (1 Bft) W-SW 248 0 min 0,000 mm 1,3 UV-I 237 W/m 12,7 C 16,4 C 4,8 km/h (1 Bft) 98,51 %
11.09.2017 14:45 16,4 C 18,3 C 79 % 1003,2 hPa 0,0 l/m 3,2 km/h (1 Bft) W-SW 247 0 min 0,000 mm 1,4 UV-I 236 W/m 12,7 C 16,4 C 8,0 km/h (2 Bft) 98,25 %
11.09.2017 14:52 16,4 C 18,3 C 79 % 1003,1 hPa 0,0 l/m 0,1 km/h (0 Bft) W-SW 252 0 min 0,000 mm 1,5 UV-I 259 W/m 12,7 C 16,4 C 1,6 km/h (1 Bft) 98,08 %
11.09.2017 14:54 16,5 C 18,3 C 77 % 1003,3 hPa 0,0 l/m 3,3 km/h (1 Bft) W-NW 284 0 min 0,000 mm 1,3 UV-I 223 W/m 12,5 C 16,5 C 4,8 km/h (1 Bft) 100,00 %
11.09.2017 14:56 16,5 C 18,3 C 78 % 1003,2 hPa 0,0 l/m 3,1 km/h (1 Bft) W-SW 240 0 min 0,000 mm 1,1 UV-I 188 W/m 12,6 C 16,5 C 4,8 km/h (1 Bft) 97,44 %
11.09.2017 14:58 16,5 C 18,3 C 77 % 1003,1 hPa 0,0 l/m 2,3 km/h (1 Bft) S-SO 161 0 min 0,000 mm 1,1 UV-I 195 W/m 12,5 C 16,5 C 6,4 km/h (2 Bft) 97,96 %
11.09.2017 15:00 16,5 C 18,3 C 78 % 1003,2 hPa 0,0 l/m 1,1 km/h (1 Bft) S-SO 161 0 min 0,127 mm 1,2 UV-I 209 W/m 12,6 C 16,5 C 6,4 km/h (2 Bft) 100,00 %
11.09.2017 15:02 16,6 C 18,3 C 79 % 1003,1 hPa 0,0 l/m 4,7 km/h (1 Bft) S 184 0 min 0,000 mm 1,2 UV-I 227 W/m 12,9 C 16,6 C 8,0 km/h (2 Bft) 97,56 %
11.09.2017 15:04 16,6 C 18,3 C 77 % 1003,1 hPa 0,0 l/m 5,8 km/h (2 Bft) S-SW 210 0 min 0,000 mm 1,3 UV-I 243 W/m 12,5 C 16,6 C 11,3 km/h (2 Bft) 100,00 %
11.09.2017 15:06 16,6 C 18,3 C 77 % 1003,1 hPa 0,0 l/m 2,0 km/h (1 Bft) S-SW 208 0 min 0,000 mm 1,3 UV-I 240 W/m 12,5 C 16,6 C 4,8 km/h (1 Bft) 100,00 %
11.09.2017 15:08 16,6 C 18,3 C 78 % 1002,9 hPa 0,0 l/m 2,0 km/h (1 Bft) S-SW 192 0 min 0,000 mm 1,3 UV-I 237 W/m 12,7 C 16,6 C 4,8 km/h (1 Bft) 100,00 %
11.09.2017 15:10 16,7 C 18,3 C 77 % 1002,9 hPa 0,0 l/m 2,6 km/h (1 Bft) S-SW 201 0 min 0,000 mm 1,3 UV-I 241 W/m 12,6 C 16,7 C 4,8 km/h (1 Bft) 100,00 %
11.09.2017 15:12 16,7 C 18,3 C 77 % 1002,8 hPa 0,0 l/m 4,0 km/h (1 Bft) S-SW 207 0 min 0,000 mm 1,3 UV-I 238 W/m 12,6 C 16,7 C 8,0 km/h (2 Bft) 100,00 %
11.09.2017 15:14 16,7 C 18,3 C 77 % 1002,9 hPa 0,0 l/m 3,4 km/h (1 Bft) S-SW 207 0 min 0,000 mm 1,2 UV-I 221 W/m 12,6 C 16,7 C 6,4 km/h (2 Bft) 100,00 %
11.09.2017 15:16 16,7 C 18,3 C 77 % 1002,9 hPa 0,0 l/m 3,6 km/h (1 Bft) S-SO 148 0 min 0,000 mm 1,0 UV-I 199 W/m 12,6 C 16,7 C 6,4 km/h (2 Bft) 100,00 %
11.09.2017 15:19 16,6 C 18,3 C 77 % 1002,9 hPa 0,0 l/m 2,1 km/h (1 Bft) SO 140 0 min 0,000 mm 0,9 UV-I 172 W/m 12,5 C 16,6 C 4,8 km/h (1 Bft) 100,00 %
11.09.2017 15:20 16,6 C 18,3 C 78 % 1002,9 hPa 0,0 l/m 3,9 km/h (1 Bft) S-SW 201 0 min 0,000 mm 0,8 UV-I 160 W/m 12,7 C 16,6 C 6,4 km/h (2 Bft) 100,00 %
11.09.2017 15:22 16,6 C 18,3 C 78 % 1002,9 hPa 0,0 l/m 3,6 km/h (1 Bft) S-SW 201 0 min 0,000 mm 0,9 UV-I 164 W/m 12,7 C 16,6 C 8,0 km/h (2 Bft) 95,74 %
11.09.2017 15:24 16,6 C 18,3 C 77 % 1002,9 hPa 0,0 l/m 5,8 km/h (2 Bft) S-SW 198 0 min 0,000 mm 1,0 UV-I 185 W/m 12,5 C 16,6 C 9,7 km/h (2 Bft) 100,00 %
11.09.2017 15:26 16,7 C 18,3 C 77 % 1002,9 hPa 0,0 l/m 2,6 km/h (1 Bft) S 173 0 min 0,000 mm 1,1 UV-I 203 W/m 12,6 C 16,7 C 4,8 km/h (1 Bft) 100,00 %
11.09.2017 15:28 16,7 C 18,3 C 77 % 1002,9 hPa 0,0 l/m 3,9 km/h (1 Bft) SO 144 0 min 0,000 mm 1,0 UV-I 189 W/m 12,6 C 16,7 C 8,0 km/h (2 Bft) 98,11 %
11.09.2017 15:30 16,7 C 18,3 C 77 % 1002,9 hPa 0,0 l/m 3,6 km/h (1 Bft) S-SO 152 0 min 0,000 mm 0,8 UV-I 155 W/m 12,6 C 16,7 C 8,0 km/h (2 Bft) 100,00 %
11.09.2017 15:32 16,7 C 18,3 C 77 % 1002,9 hPa 0,0 l/m 3,5 km/h (1 Bft) S-SO 161 0 min 0,000 mm 0,6 UV-I 120 W/m 12,6 C 16,7 C 8,0 km/h (2 Bft) 98,00 %
11.09.2017 15:34 16,6 C 18,3 C 76 % 1002,9 hPa 0,0 l/m 1,5 km/h (1 Bft) S-SO 161 0 min 0,000 mm 0,5 UV-I 103 W/m 12,3 C 16,6 C 3,2 km/h (1 Bft) 100,00 %
11.09.2017 15:36 16,5 C 18,3 C 77 % 1002,9 hPa 0,0 l/m 2,7 km/h (1 Bft) S-SW 192 0 min 0,000 mm 0,5 UV-I 96 W/m 12,5 C 16,5 C 4,8 km/h (1 Bft) 100,00 %
11.09.2017 15:38 16,4 C 18,3 C 77 % 1002,9 hPa 0,0 l/m 0,9 km/h (0 Bft) S-SW 192 0 min 0,000 mm 0,5 UV-I 95 W/m 12,4 C 16,4 C 3,2 km/h (1 Bft) 97,87 %
11.09.2017 15:40 16,4 C 18,3 C 78 % 1003,0 hPa 0,0 l/m 3,0 km/h (1 Bft) S-SW 192 0 min 0,000 mm 0,5 UV-I 93 W/m 12,6 C 16,4 C 4,8 km/h (1 Bft) 100,00 %
11.09.2017 15:42 16,4 C 18,3 C 78 % 1003,1 hPa 0,0 l/m 0,1 km/h (0 Bft) S-SW 192 0 min 0,000 mm 0,3 UV-I 89 W/m 12,6 C 16,4 C 1,6 km/h (1 Bft) 100,00 %
11.09.2017 15:44 16,4 C 18,3 C 78 % 1003,1 hPa 0,0 l/m 1,5 km/h (1 Bft) S-SW 206 0 min 0,000 mm 0,0 UV-I 84 W/m 12,6 C 16,4 C 3,2 km/h (1 Bft) 100,00 %
11.09.2017 15:46 16,4 C 18,3 C 78 % 1003,0 hPa 0,0 l/m 2,0 km/h (1 Bft) S-SW 206 0 min 0,000 mm 0,0 UV-I 81 W/m 12,6 C 16,4 C 3,2 km/h (1 Bft) 100,00 %
11.09.2017 15:48 16,4 C 18,3 C 78 % 1003,1 hPa 0,0 l/m 1,0 km/h (0 Bft) S-SW 206 0 min 0,000 mm 0,0 UV-I 79 W/m 12,6 C 16,4 C 3,2 km/h (1 Bft) 100,00 %
11.09.2017 15:50 16,4 C 18,3 C 78 % 1003,1 hPa 0,0 l/m 3,2 km/h (1 Bft) S-SW 206 0 min 0,000 mm 0,0 UV-I 78 W/m 12,6 C 16,4 C 4,8 km/h (1 Bft) 100,00 %
11.09.2017 15:52 16,4 C 18,3 C 78 % 1003,1 hPa 0,0 l/m 3,7 km/h (1 Bft) SW 232 0 min 0,000 mm 0,0 UV-I 76 W/m 12,6 C 16,4 C 6,4 km/h (2 Bft) 100,00 %
11.09.2017 15:54 16,4 C 18,3 C 78 % 1003,2 hPa 0,0 l/m 6,2 km/h (2 Bft) SW 219 0 min 0,000 mm 0,0 UV-I 72 W/m 12,6 C 16,4 C 8,0 km/h (2 Bft) 100,00 %
11.09.2017 15:56 16,4 C 18,3 C 78 % 1003,2 hPa 0,0 l/m 5,7 km/h (1 Bft) SW 221 0 min 0,000 mm 0,0 UV-I 74 W/m 12,6 C 16,4 C 8,0 km/h (2 Bft) 100,00 %
11.09.2017 15:58 16,4 C 18,3 C 78 % 1003,2 hPa 0,0 l/m 6,0 km/h (2 Bft) W-SW 238 0 min 0,000 mm 0,0 UV-I 79 W/m 12,6 C 16,4 C 11,3 km/h (2 Bft) 100,00 %
11.09.2017 16:00 16,4 C 18,3 C 78 % 1003,2 hPa 0,0 l/m 2,7 km/h (1 Bft) SW 215 0 min 0,000 mm 0,0 UV-I 83 W/m 12,6 C 16,4 C 6,4 km/h (2 Bft) 100,00 %
11.09.2017 16:02 16,3 C 18,3 C 78 % 1003,2 hPa 0,0 l/m 2,5 km/h (1 Bft) SW 215 0 min 0,102 mm 0,0 UV-I 82 W/m 12,5 C 16,3 C 4,8 km/h (1 Bft) 100,00 %
11.09.2017 16:04 16,3 C 18,3 C 78 % 1003,4 hPa 0,0 l/m 4,0 km/h (1 Bft) SW 234 0 min 0,000 mm 0,0 UV-I 78 W/m 12,5 C 16,3 C 6,4 km/h (2 Bft) 100,00 %
11.09.2017 16:06 16,3 C 18,3 C 78 % 1003,4 hPa 0,0 l/m 3,8 km/h (1 Bft) SW 219 0 min 0,000 mm 0,0 UV-I 77 W/m 12,5 C 16,3 C 6,4 km/h (2 Bft) 100,00 %
11.09.2017 16:08 16,3 C 18,3 C 79 % 1003,4 hPa 0,0 l/m 4,9 km/h (1 Bft) S-SW 194 0 min 0,000 mm 0,0 UV-I 77 W/m 12,6 C 16,3 C 8,0 km/h (2 Bft) 97,37 %
11.09.2017 16:10 16,3 C 18,3 C 78 % 1003,4 hPa 0,0 l/m 5,1 km/h (1 Bft) SW 219 0 min 0,000 mm 0,0 UV-I 76 W/m 12,5 C 16,3 C 8,0 km/h (2 Bft) 98,11 %
11.09.2017 16:12 16,3 C 18,3 C 78 % 1003,3 hPa 0,0 l/m 5,4 km/h (1 Bft) S-SW 209 0 min 0,000 mm 0,0 UV-I 77 W/m 12,5 C 16,3 C 8,0 km/h (2 Bft) 96,00 %
11.09.2017 16:14 16,3 C 18,3 C 77 % 1003,2 hPa 0,0 l/m 3,9 km/h (1 Bft) S-SW 209 0 min 0,000 mm 0,0 UV-I 83 W/m 12,3 C 16,3 C 6,4 km/h (2 Bft) 97,87 %
11.09.2017 16:16 16,2 C 18,3 C 77 % 1003,2 hPa 0,0 l/m 3,4 km/h (1 Bft) S-SW 209 0 min 0,000 mm 0,0 UV-I 90 W/m 12,2 C 16,2 C 4,8 km/h (1 Bft) 97,22 %
11.09.2017 16:18 16,2 C 18,3 C 77 % 1003,2 hPa 0,0 l/m 1,9 km/h (1 Bft) S-SW 209 0 min 0,000 mm 0,0 UV-I 93 W/m 12,2 C 16,2 C 4,8 km/h (1 Bft) 98,18 %
11.09.2017 16:20 16,2 C 18,3 C 77 % 1003,1 hPa 0,0 l/m 0,1 km/h (0 Bft) S-SW 209 0 min 0,000 mm 0,0 UV-I 87 W/m 12,2 C 16,2 C 1,6 km/h (1 Bft) 97,92 %
11.09.2017 16:22 16,2 C 18,3 C 78 % 1003,2 hPa 0,0 l/m 2,1 km/h (1 Bft) S-SW 209 0 min 0,000 mm 0,0 UV-I 81 W/m 12,4 C 16,2 C 3,2 km/h (1 Bft) 98,00 %
11.09.2017 16:24 16,3 C 18,3 C 77 % 1003,3 hPa 0,0 l/m 3,1 km/h (1 Bft) S-SW 209 0 min 0,000 mm 0,0 UV-I 77 W/m 12,3 C 16,3 C 4,8 km/h (1 Bft) 95,74 %
11.09.2017 16:26 16,3 C 18,3 C 77 % 1003,3 hPa 0,0 l/m 4,1 km/h (1 Bft) SW 219 0 min 0,000 mm 0,0 UV-I 77 W/m 12,3 C 16,3 C 6,4 km/h (2 Bft) 91,43 %
11.09.2017 16:28 16,3 C 18,3 C 77 % 1003,3 hPa 0,0 l/m 3,7 km/h (1 Bft) W-SW 249 0 min 0,000 mm 0,0 UV-I 77 W/m 12,3 C 16,3 C 6,4 km/h (2 Bft) 98,11 %
11.09.2017 16:30 16,3 C 18,3 C 77 % 1003,3 hPa 0,0 l/m 3,3 km/h (1 Bft) W-SW 257 0 min 0,000 mm 0,0 UV-I 80 W/m 12,3 C 16,3 C 4,8 km/h (1 Bft) 97,56 %
11.09.2017 16:32 16,2 C 18,3 C 76 % 1003,3 hPa 0,0 l/m 6,3 km/h (2 Bft) SW 234 0 min 0,000 mm 0,0 UV-I 87 W/m 12,0 C 16,2 C 11,3 km/h (2 Bft) 92,00 %
11.09.2017 16:34 16,2 C 18,3 C 75 % 1003,3 hPa 0,0 l/m 5,9 km/h (2 Bft) W 266 0 min 0,000 mm 0,0 UV-I 104 W/m 11,8 C 16,2 C 8,0 km/h (2 Bft) 92,68 %
11.09.2017 16:36 16,2 C 18,3 C 75 % 1003,3 hPa 0,0 l/m 4,4 km/h (1 Bft) W 264 0 min 0,000 mm 0,0 UV-I 123 W/m 11,8 C 16,2 C 6,4 km/h (2 Bft) 98,11 %
11.09.2017 16:38 16,3 C 18,3 C 76 % 1003,3 hPa 0,0 l/m 2,4 km/h (1 Bft) W 264 0 min 0,000 mm 0,5 UV-I 129 W/m 12,1 C 16,3 C 3,2 km/h (1 Bft) 100,00 %
11.09.2017 16:40 16,2 C 18,3 C 75 % 1003,2 hPa 0,0 l/m 2,6 km/h (1 Bft) W 264 0 min 0,000 mm 0,5 UV-I 130 W/m 11,8 C 16,2 C 4,8 km/h (1 Bft) 94,74 %
11.09.2017 16:42 16,3 C 18,3 C 75 % 1003,2 hPa 0,0 l/m 2,5 km/h (1 Bft) W 268 0 min 0,000 mm 0,0 UV-I 129 W/m 11,9 C 16,3 C 4,8 km/h (1 Bft) 98,11 %
11.09.2017 16:44 16,3 C 18,3 C 73 % 1003,2 hPa 0,0 l/m 3,9 km/h (1 Bft) W-SW 248 0 min 0,000 mm 0,0 UV-I 123 W/m 11,4 C 16,3 C 6,4 km/h (2 Bft) 100,00 %
11.09.2017 16:46 16,3 C 18,3 C 74 % 1003,2 hPa 0,0 l/m 3,1 km/h (1 Bft) W-SW 248 0 min 0,000 mm 0,0 UV-I 113 W/m 11,7 C 16,3 C 4,8 km/h (1 Bft) 100,00 %
11.09.2017 16:48 16,3 C 18,3 C 73 % 1003,2 hPa 0,0 l/m 1,6 km/h (1 Bft) W-SW 248 0 min 0,000 mm 0,0 UV-I 108 W/m 11,4 C 16,3 C 3,2 km/h (1 Bft) 94,74 %
11.09.2017 16:50 16,3 C 18,3 C 73 % 1003,1 hPa 0,0 l/m 1,0 km/h (0 Bft) W-SW 248 0 min 0,000 mm 0,0 UV-I 106 W/m 11,4 C 16,3 C 4,8 km/h (1 Bft) 100,00 %
11.09.2017 16:52 16,4 C 18,3 C 74 % 1003,3 hPa 0,0 l/m 3,7 km/h (1 Bft) W-SW 248 0 min 0,000 mm 0,0 UV-I 102 W/m 11,8 C 16,4 C 6,4 km/h (2 Bft) 93,62 %
11.09.2017 16:54 16,4 C 18,3 C 74 % 1003,2 hPa 0,0 l/m 1,6 km/h (1 Bft) W-SW 249 0 min 0,000 mm 0,0 UV-I 100 W/m 11,8 C 16,4 C 3,2 km/h (1 Bft) 98,11 %
11.09.2017 16:56 16,3 C 18,3 C 74 % 1003,3 hPa 0,0 l/m 2,2 km/h (1 Bft) W-SW 248 0 min 0,000 mm 0,0 UV-I 104 W/m 11,7 C 16,3 C 3,2 km/h (1 Bft) 97,87 %
11.09.2017 16:58 16,3 C 18,3 C 74 % 1003,3 hPa 0,0 l/m 2,5 km/h (1 Bft) W 275 0 min 0,000 mm 0,0 UV-I 112 W/m 11,7 C 16,3 C 4,8 km/h (1 Bft) 97,44 %
11.09.2017 17:00 16,3 C 18,3 C 75 % 1003,3 hPa 0,0 l/m 2,3 km/h (1 Bft) W 275 0 min 0,000 mm 0,0 UV-I 114 W/m 11,9 C 16,3 C 4,8 km/h (1 Bft) 96,00 %
11.09.2017 17:02 16,3 C 18,3 C 75 % 1003,3 hPa 0,0 l/m 3,4 km/h (1 Bft) W 269 0 min 0,076 mm 0,0 UV-I 112 W/m 11,9 C 16,3 C 4,8 km/h (1 Bft) 97,56 %
11.09.2017 17:04 16,3 C 18,3 C 75 % 1003,3 hPa 0,0 l/m 4,0 km/h (1 Bft) W 269 0 min 0,000 mm 0,0 UV-I 109 W/m 11,9 C 16,3 C 6,4 km/h (2 Bft) 98,00 %
11.09.2017 17:06 16,3 C 18,3 C 75 % 1003,3 hPa 0,0 l/m 3,2 km/h (1 Bft) W 269 0 min 0,000 mm 0,0 UV-I 111 W/m 11,9 C 16,3 C 4,8 km/h (1 Bft) 97,87 %
11.09.2017 17:08 16,3 C 18,3 C 75 % 1003,3 hPa 0,0 l/m 1,8 km/h (1 Bft) W 269 0 min 0,000 mm 0,0 UV-I 119 W/m 11,9 C 16,3 C 3,2 km/h (1 Bft) 97,87 %
11.09.2017 17:10 16,3 C 18,3 C 75 % 1003,3 hPa 0,0 l/m 2,7 km/h (1 Bft) W 269 0 min 0,000 mm 0,0 UV-I 128 W/m 11,9 C 16,3 C 4,8 km/h (1 Bft) 95,74 %
11.09.2017 17:12 16,3 C 18,3 C 75 % 1003,3 hPa 0,0 l/m 3,8 km/h (1 Bft) W 281 0 min 0,000 mm 0,0 UV-I 134 W/m 11,9 C 16,3 C 6,4 km/h (2 Bft) 97,87 %
11.09.2017 17:14 16,3 C 18,3 C 75 % 1003,2 hPa 0,0 l/m 4,8 km/h (1 Bft) W-SW 257 0 min 0,000 mm 0,0 UV-I 127 W/m 11,9 C 16,3 C 6,4 km/h (2 Bft) 97,87 %
11.09.2017 17:16 16,3 C 18,3 C 75 % 1003,2 hPa 0,0 l/m 1,6 km/h (1 Bft) W-SW 256 0 min 0,000 mm 0,0 UV-I 117 W/m 11,9 C 16,3 C 6,4 km/h (2 Bft) 98,11 %
11.09.2017 17:18 16,4 C 18,3 C 76 % 1003,1 hPa 0,0 l/m 1,4 km/h (1 Bft) W-SW 256 0 min 0,000 mm 0,0 UV-I 113 W/m 12,2 C 16,4 C 4,8 km/h (1 Bft) 97,87 %
11.09.2017 17:20 16,4 C 18,3 C 75 % 1003,1 hPa 0,0 l/m 2,6 km/h (1 Bft) W 259 0 min 0,000 mm 0,0 UV-I 112 W/m 12,0 C 16,4 C 4,8 km/h (1 Bft) 97,37 %
11.09.2017 17:22 16,4 C 18,3 C 75 % 1003,2 hPa 0,0 l/m 4,8 km/h (1 Bft) W-SW 251 0 min 0,000 mm 0,0 UV-I 108 W/m 12,0 C 16,4 C 6,4 km/h (2 Bft) 97,87 %
11.09.2017 17:24 16,3 C 18,3 C 75 % 1003,2 hPa 0,0 l/m 2,8 km/h (1 Bft) W-SW 252 0 min 0,000 mm 0,0 UV-I 104 W/m 11,9 C 16,3 C 4,8 km/h (1 Bft) 97,87 %
11.09.2017 17:26 16,3 C 18,3 C 76 % 1003,2 hPa 0,0 l/m 3,6 km/h (1 Bft) W-SW 252 0 min 0,000 mm 0,0 UV-I 103 W/m 12,1 C 16,3 C 6,4 km/h (2 Bft) 96,43 %
11.09.2017 17:28 16,3 C 18,3 C 77 % 1003,3 hPa 0,0 l/m 2,7 km/h (1 Bft) W-SW 252 0 min 0,000 mm 0,0 UV-I 108 W/m 12,3 C 16,3 C 4,8 km/h (1 Bft) 92,11 %
11.09.2017 17:30 16,3 C 18,3 C 77 % 1003,3 hPa 0,0 l/m 2,8 km/h (1 Bft) W-SW 252 0 min 0,000 mm 0,0 UV-I 108 W/m 12,3 C 16,3 C 4,8 km/h (1 Bft) 98,00 %
11.09.2017 17:32 16,3 C 18,3 C 77 % 1003,3 hPa 0,0 l/m 3,5 km/h (1 Bft) W-SW 252 0 min 0,000 mm 0,0 UV-I 105 W/m 12,3 C 16,3 C 6,4 km/h (2 Bft) 97,87 %
11.09.2017 17:34 16,3 C 18,3 C 77 % 1003,3 hPa 0,0 l/m 4,4 km/h (1 Bft) W-SW 252 0 min 0,000 mm 0,0 UV-I 101 W/m 12,3 C 16,3 C 6,4 km/h (2 Bft) 98,11 %
11.09.2017 17:36 16,4 C 18,3 C 76 % 1003,3 hPa 0,0 l/m 3,8 km/h (1 Bft) W-SW 252 0 min 0,000 mm 0,0 UV-I 94 W/m 12,2 C 16,4 C 6,4 km/h (2 Bft) 97,87 %
11.09.2017 17:38 16,4 C 18,3 C 77 % 1003,4 hPa 0,0 l/m 2,1 km/h (1 Bft) W-SW 252 0 min 0,000 mm 0,0 UV-I 86 W/m 12,4 C 16,4 C 4,8 km/h (1 Bft) 97,44 %
11.09.2017 17:40 16,4 C 18,3 C 77 % 1003,4 hPa 0,0 l/m 1,7 km/h (1 Bft) W-SW 252 0 min 0,000 mm 0,0 UV-I 76 W/m 12,4 C 16,4 C 3,2 km/h (1 Bft) 98,00 %
11.09.2017 17:42 16,3 C 18,3 C 78 % 1003,4 hPa 0,0 l/m 2,2 km/h (1 Bft) W-SW 252 0 min 0,000 mm 0,0 UV-I 65 W/m 12,5 C 16,3 C 4,8 km/h (1 Bft) 96,88 %
11.09.2017 17:44 16,3 C 18,3 C 78 % 1003,5 hPa 0,0 l/m 2,9 km/h (1 Bft) W-SW 252 0 min 0,000 mm 0,0 UV-I 58 W/m 12,5 C 16,3 C 4,8 km/h (1 Bft) 98,21 %
11.09.2017 17:46 16,3 C 18,3 C 77 % 1003,4 hPa 0,0 l/m 2,4 km/h (1 Bft) W-SW 252 0 min 0,000 mm 0,0 UV-I 56 W/m 12,3 C 16,3 C 4,8 km/h (1 Bft) 98,11 %
11.09.2017 17:48 16,3 C 18,3 C 78 % 1003,4 hPa 0,0 l/m 3,7 km/h (1 Bft) W-SW 252 0 min 0,000 mm 0,0 UV-I 54 W/m 12,5 C 16,3 C 4,8 km/h (1 Bft) 97,37 %
11.09.2017 17:50 16,3 C 18,3 C 77 % 1003,4 hPa 0,0 l/m 4,6 km/h (1 Bft) W-SW 252 0 min 0,000 mm 0,0 UV-I 51 W/m 12,3 C 16,3 C 6,4 km/h (2 Bft) 96,00 %
11.09.2017 17:52 16,3 C 18,3 C 78 % 1003,4 hPa 0,0 l/m 4,2 km/h (1 Bft) SW 222 0 min 0,000 mm 0,0 UV-I 45 W/m 12,5 C 16,3 C 6,4 km/h (2 Bft) 97,87 %
11.09.2017 17:54 16,2 C 18,3 C 77 % 1003,4 hPa 0,0 l/m 3,1 km/h (1 Bft) SW 223 0 min 0,000 mm 0,0 UV-I 39 W/m 12,2 C 16,2 C 4,8 km/h (1 Bft) 98,00 %
11.09.2017 17:56 16,2 C 18,3 C 77 % 1003,4 hPa 0,0 l/m 4,1 km/h (1 Bft) W-SW 254 0 min 0,000 mm 0,0 UV-I 32 W/m 12,2 C 16,2 C 6,4 km/h (2 Bft) 98,00 %
11.09.2017 17:58 16,2 C 18,3 C 78 % 1003,4 hPa 0,0 l/m 4,0 km/h (1 Bft) W 276 0 min 0,000 mm 0,0 UV-I 28 W/m 12,4 C 16,2 C 6,4 km/h (2 Bft) 97,56 %
11.09.2017 18:00 16,2 C 18,3 C 78 % 1003,4 hPa 0,0 l/m 3,9 km/h (1 Bft) W-SW 238 0 min 0,051 mm 0,0 UV-I 28 W/m 12,4 C 16,2 C 6,4 km/h (2 Bft) 97,87 %
11.09.2017 18:02 16,2 C 18,3 C 79 % 1003,3 hPa 0,0 l/m 3,6 km/h (1 Bft) W-SW 238 0 min 0,000 mm 0,0 UV-I 30 W/m 12,6 C 16,2 C 4,8 km/h (1 Bft) 100,00 %
11.09.2017 18:04 16,1 C 18,3 C 78 % 1003,3 hPa 0,0 l/m 3,1 km/h (1 Bft) W-SW 238 0 min 0,000 mm 0,0 UV-I 31 W/m 12,3 C 16,1 C 4,8 km/h (1 Bft) 100,00 %
11.09.2017 18:06 16,1 C 18,3 C 80 % 1003,3 hPa 0,0 l/m 2,0 km/h (1 Bft) W-SW 238 0 min 0,000 mm 0,0 UV-I 35 W/m 12,6 C 16,1 C 3,2 km/h (1 Bft) 98,11 %
11.09.2017 18:08 16,1 C 18,3 C 80 % 1003,3 hPa 0,0 l/m 1,7 km/h (1 Bft) W-SW 238 0 min 0,000 mm 0,0 UV-I 39 W/m 12,6 C 16,1 C 3,2 km/h (1 Bft) 97,56 %
11.09.2017 18:10 15,9 C 18,3 C 81 % 1003,3 hPa 0,0 l/m 2,1 km/h (1 Bft) W-SW 238 0 min 0,000 mm 0,0 UV-I 39 W/m 12,6 C 15,9 C 4,8 km/h (1 Bft) 98,21 %
11.09.2017 18:12 15,9 C 18,3 C 81 % 1003,3 hPa 0,0 l/m 1,6 km/h (1 Bft) W-SW 238 0 min 0,000 mm 0,0 UV-I 38 W/m 12,6 C 15,9 C 3,2 km/h (1 Bft) 95,74 %
11.09.2017 18:14 15,9 C 18,3 C 81 % 1003,3 hPa 0,0 l/m 1,7 km/h (1 Bft) W-SW 238 0 min 0,000 mm 0,0 UV-I 35 W/m 12,6 C 15,9 C 3,2 km/h (1 Bft) 97,73 %
11.09.2017 18:16 15,9 C 18,3 C 81 % 1003,3 hPa 0,0 l/m 2,6 km/h (1 Bft) W-SW 238 0 min 0,000 mm 0,0 UV-I 33 W/m 12,6 C 15,9 C 4,8 km/h (1 Bft) 97,87 %
11.09.2017 18:18 15,9 C 18,3 C 81 % 1003,3 hPa 0,0 l/m 1,9 km/h (1 Bft) W-SW 238 0 min 0,000 mm 0,0 UV-I 33 W/m 12,6 C 15,9 C 3,2 km/h (1 Bft) 97,92 %
11.09.2017 18:20 15,9 C 18,3 C 81 % 1003,3 hPa 0,0 l/m 1,5 km/h (1 Bft) W-SW 238 0 min 0,000 mm 0,0 UV-I 35 W/m 12,6 C 15,9 C 3,2 km/h (1 Bft) 97,87 %
11.09.2017 18:22 15,9 C 18,3 C 81 % 1003,2 hPa 0,0 l/m 0,6 km/h (0 Bft) W-SW 237 0 min 0,000 mm 0,0 UV-I 37 W/m 12,6 C 15,9 C 3,2 km/h (1 Bft) 97,37 %
11.09.2017 18:24 15,9 C 18,3 C 82 % 1003,1 hPa 0,0 l/m 1,5 km/h (1 Bft) S-SW 206 0 min 0,000 mm 0,0 UV-I 39 W/m 12,8 C 15,9 C 3,2 km/h (1 Bft) 98,00 %
11.09.2017 18:26 15,9 C 18,3 C 83 % 1003,0 hPa 0,0 l/m 1,4 km/h (1 Bft) S 171 0 min 0,000 mm 0,0 UV-I 38 W/m 13,0 C 15,9 C 3,2 km/h (1 Bft) 96,00 %
11.09.2017 18:28 15,8 C 18,3 C 83 % 1003,0 hPa 0,0 l/m 1,8 km/h (1 Bft) S 170 0 min 0,000 mm 0,0 UV-I 34 W/m 12,9 C 15,8 C 6,4 km/h (2 Bft) 95,12 %
11.09.2017 18:30 15,8 C 18,3 C 83 % 1003,0 hPa 0,0 l/m 2,3 km/h (1 Bft) S 171 0 min 0,000 mm 0,0 UV-I 32 W/m 12,9 C 15,8 C 6,4 km/h (2 Bft) 98,00 %
11.09.2017 18:32 15,8 C 18,3 C 83 % 1003,0 hPa 0,0 l/m 3,7 km/h (1 Bft) S 171 0 min 0,000 mm 0,0 UV-I 31 W/m 12,9 C 15,8 C 8,0 km/h (2 Bft) 94,00 %
11.09.2017 18:34 15,8 C 18,3 C 82 % 1003,1 hPa 0,0 l/m 1,9 km/h (1 Bft) S 171 0 min 0,000 mm 0,0 UV-I 28 W/m 12,7 C 15,8 C 6,4 km/h (2 Bft) 98,00 %
11.09.2017 18:36 15,8 C 18,3 C 82 % 1003,1 hPa 0,0 l/m 1,4 km/h (1 Bft) S 171 0 min 0,000 mm 0,0 UV-I 26 W/m 12,7 C 15,8 C 3,2 km/h (1 Bft) 97,37 %
11.09.2017 18:38 15,8 C 18,3 C 83 % 1003,1 hPa 0,0 l/m 1,3 km/h (1 Bft) S 171 0 min 0,000 mm 0,0 UV-I 24 W/m 12,9 C 15,8 C 3,2 km/h (1 Bft) 98,00 %
11.09.2017 18:40 15,8 C 18,3 C 83 % 1003,2 hPa 0,0 l/m 1,7 km/h (1 Bft) S 171 0 min 0,000 mm 0,0 UV-I 22 W/m 12,9 C 15,8 C 3,2 km/h (1 Bft) 97,73 %
11.09.2017 18:42 15,8 C 18,3 C 83 % 1003,2 hPa 0,0 l/m 2,6 km/h (1 Bft) S-SO 164 0 min 0,000 mm 0,0 UV-I 20 W/m 12,9 C 15,8 C 6,4 km/h (2 Bft) 100,00 %
11.09.2017 18:44 15,8 C 18,3 C 83 % 1003,3 hPa 0,0 l/m 3,2 km/h (1 Bft) S 175 0 min 0,000 mm 0,0 UV-I 19 W/m 12,9 C 15,8 C 8,0 km/h (2 Bft) 97,37 %
11.09.2017 18:46 15,8 C 18,3 C 82 % 1003,3 hPa 0,0 l/m 2,1 km/h (1 Bft) S-SO 163 0 min 0,000 mm 0,0 UV-I 18 W/m 12,7 C 15,8 C 6,4 km/h (2 Bft) 100,00 %
11.09.2017 18:48 15,7 C 18,3 C 82 % 1003,3 hPa 0,0 l/m 2,9 km/h (1 Bft) S-SO 163 0 min 0,000 mm 0,0 UV-I 17 W/m 12,6 C 15,7 C 8,0 km/h (2 Bft) 100,00 %
11.09.2017 18:50 15,7 C 18,3 C 82 % 1003,3 hPa 0,0 l/m 1,4 km/h (1 Bft) S-SO 163 0 min 0,000 mm 0,0 UV-I 16 W/m 12,6 C 15,7 C 3,2 km/h (1 Bft) 100,00 %
11.09.2017 18:52 15,7 C 18,3 C 82 % 1003,3 hPa 0,0 l/m 1,1 km/h (1 Bft) S-SO 163 0 min 0,000 mm 0,0 UV-I 16 W/m 12,6 C 15,7 C 3,2 km/h (1 Bft) 100,00 %
11.09.2017 18:54 15,7 C 18,3 C 82 % 1003,3 hPa 0,0 l/m 1,6 km/h (1 Bft) S-SO 163 0 min 0,000 mm 0,0 UV-I 15 W/m 12,6 C 15,7 C 3,2 km/h (1 Bft) 100,00 %
11.09.2017 18:56 15,7 C 18,3 C 82 % 1003,3 hPa 0,0 l/m 2,1 km/h (1 Bft) S-SO 163 0 min 0,000 mm 0,0 UV-I 14 W/m 12,6 C 15,7 C 6,4 km/h (2 Bft) 100,00 %
11.09.2017 18:58 15,7 C 18,3 C 82 % 1003,3 hPa 0,0 l/m 2,3 km/h (1 Bft) S-SO 163 0 min 0,000 mm 0,0 UV-I 13 W/m 12,6 C 15,7 C 6,4 km/h (2 Bft) 100,00 %
11.09.2017 19:00 15,7 C 18,3 C 82 % 1003,4 hPa 0,0 l/m 0,8 km/h (0 Bft) S-SO 163 0 min 0,000 mm 0,0 UV-I 12 W/m 12,6 C 15,7 C 3,2 km/h (1 Bft) 100,00 %
11.09.2017 19:02 15,7 C 18,3 C 82 % 1003,4 hPa 0,0 l/m 1,8 km/h (1 Bft) S-SO 163 0 min 0,025 mm 0,0 UV-I 11 W/m 12,6 C 15,7 C 6,4 km/h (2 Bft) 98,00 %
11.09.2017 19:04 15,7 C 18,3 C 82 % 1003,4 hPa 0,0 l/m 0,8 km/h (0 Bft) S-SO 163 0 min 0,000 mm 0,0 UV-I 11 W/m 12,6 C 15,7 C 3,2 km/h (1 Bft) 100,00 %
11.09.2017 19:06 15,6 C 18,3 C 82 % 1003,5 hPa 0,0 l/m 1,0 km/h (0 Bft) S-SO 163 0 min 0,000 mm 0,0 UV-I 11 W/m 12,5 C 15,6 C 3,2 km/h (1 Bft) 96,00 %
11.09.2017 19:08 15,6 C 18,3 C 82 % 1003,5 hPa 0,0 l/m 1,8 km/h (1 Bft) S 171 0 min 0,000 mm 0,0 UV-I 11 W/m 12,5 C 15,6 C 6,4 km/h (2 Bft) 100,00 %
11.09.2017 19:10 15,6 C 18,3 C 82 % 1003,5 hPa 0,0 l/m 1,1 km/h (1 Bft) S 171 0 min 0,000 mm 0,0 UV-I 12 W/m 12,5 C 15,6 C 3,2 km/h (1 Bft) 100,00 %
11.09.2017 19:12 15,6 C 18,3 C 82 % 1003,5 hPa 0,0 l/m 0,9 km/h (0 Bft) S 171 2 min 0,000 mm 0,0 UV-I 12 W/m 12,5 C 15,6 C 3,2 km/h (1 Bft) 100,00 %
11.09.2017 19:14 15,5 C 18,3 C 83 % 1003,5 hPa 0,0 l/m 0,9 km/h (0 Bft) S 171 2 min 0,000 mm 0,0 UV-I 11 W/m 12,6 C 15,5 C 3,2 km/h (1 Bft) 100,00 %
11.09.2017 19:16 15,5 C 18,3 C 82 % 1003,5 hPa 0,0 l/m 0,2 km/h (0 Bft) S 171 0 min 0,000 mm 0,0 UV-I 10 W/m 12,4 C 15,5 C 1,6 km/h (1 Bft) 95,74 %
11.09.2017 19:18 15,4 C 18,3 C 82 % 1003,6 hPa 0,0 l/m 0,0 km/h (0 Bft) S 171 0 min 0,000 mm 0,0 UV-I 9 W/m 12,3 C 15,4 C 0,0 km/h (0 Bft) 100,00 %
11.09.2017 19:20 15,4 C 18,3 C 83 % 1003,7 hPa 0,0 l/m 0,4 km/h (0 Bft) S 171 0 min 0,000 mm 0,0 UV-I 7 W/m 12,5 C 15,4 C 3,2 km/h (1 Bft) 100,00 %
11.09.2017 19:22 15,4 C 18,3 C 83 % 1003,6 hPa 0,0 l/m 0,0 km/h (0 Bft) S 171 0 min 0,000 mm 0,0 UV-I 9 W/m 12,5 C 15,4 C 1,6 km/h (1 Bft) 100,00 %
11.09.2017 19:24 15,4 C 18,3 C 84 % 1003,7 hPa 0,0 l/m 0,7 km/h (0 Bft) S 171 0 min 0,000 mm 0,0 UV-I 9 W/m 12,7 C 15,4 C 3,2 km/h (1 Bft) 100,00 %
11.09.2017 19:26 15,3 C 18,3 C 83 % 1003,6 hPa 0,0 l/m 0,6 km/h (0 Bft) S 171 0 min 0,000 mm 0,0 UV-I 7 W/m 12,4 C 15,3 C 1,6 km/h (1 Bft) 100,00 %
11.09.2017 19:28 15,3 C 18,3 C 84 % 1003,7 hPa 0,0 l/m 1,6 km/h (1 Bft) S 171 0 min 0,000 mm 0,0 UV-I 7 W/m 12,6 C 15,3 C 3,2 km/h (1 Bft) 100,00 %
11.09.2017 19:30 15,2 C 18,3 C 84 % 1003,7 hPa 0,0 l/m 0,3 km/h (0 Bft) S 171 0 min 0,000 mm 0,0 UV-I 7 W/m 12,5 C 15,2 C 1,6 km/h (1 Bft) 97,92 %
11.09.2017 19:32 15,2 C 18,3 C 84 % 1003,8 hPa 0,0 l/m 0,1 km/h (0 Bft) S 171 0 min 0,000 mm 0,0 UV-I 7 W/m 12,5 C 15,2 C 1,6 km/h (1 Bft) 100,00 %
11.09.2017 19:34 15,2 C 18,3 C 84 % 1003,8 hPa 0,0 l/m 1,4 km/h (1 Bft) S 171 0 min 0,000 mm 0,0 UV-I 6 W/m 12,5 C 15,2 C 3,2 km/h (1 Bft) 100,00 %
11.09.2017 19:36 15,2 C 18,3 C 84 % 1003,8 hPa 0,0 l/m 1,3 km/h (1 Bft) S 171 0 min 0,000 mm 0,0 UV-I 5 W/m 12,5 C 15,2 C 3,2 km/h (1 Bft) 100,00 %
11.09.2017 19:38 15,2 C 18,3 C 84 % 1003,9 hPa 0,0 l/m 0,5 km/h (0 Bft) S 171 0 min 0,000 mm 0,0 UV-I 0 W/m 12,5 C 15,2 C 1,6 km/h (1 Bft) 100,00 %
11.09.2017 19:40 15,1 C 18,3 C 84 % 1004,0 hPa 0,0 l/m 0,3 km/h (0 Bft) S 171 0 min 0,000 mm 0,0 UV-I 0 W/m 12,4 C 15,1 C 1,6 km/h (1 Bft) 100,00 %
11.09.2017 19:42 15,1 C 18,3 C 84 % 1004,1 hPa 0,0 l/m 0,8 km/h (0 Bft) S 171 0 min 0,000 mm 0,0 UV-I 0 W/m 12,4 C 15,1 C 3,2 km/h (1 Bft) 100,00 %
11.09.2017 19:44 15,1 C 18,3 C 84 % 1004,1 hPa 0,0 l/m 0,7 km/h (0 Bft) S 171 0 min 0,000 mm 0,0 UV-I 0 W/m 12,4 C 15,1 C 3,2 km/h (1 Bft) 100,00 %
11.09.2017 19:46 15,1 C 18,3 C 84 % 1004,1 hPa 0,0 l/m 0,1 km/h (0 Bft) S 171 0 min 0,000 mm 0,0 UV-I 0 W/m 12,4 C 15,1 C 1,6 km/h (1 Bft) 100,00 %
11.09.2017 19:48 15,1 C 18,3 C 84 % 1004,1 hPa 0,0 l/m 0,0 km/h (0 Bft) S 171 0 min 0,000 mm 0,0 UV-I 0 W/m 12,4 C 15,1 C 0,0 km/h (0 Bft) 97,37 %
11.09.2017 19:50 15,1 C 18,3 C 85 % 1004,1 hPa 0,0 l/m 0,1 km/h (0 Bft) S 171 0 min 0,000 mm 0,0 UV-I 0 W/m 12,6 C 15,1 C 1,6 km/h (1 Bft) 100,00 %
11.09.2017 19:52 15,1 C 18,3 C 85 % 1004,2 hPa 0,0 l/m 0,2 km/h (0 Bft) S 171 0 min 0,000 mm 0,0 UV-I 0 W/m 12,6 C 15,1 C 1,6 km/h (1 Bft) 96,23 %
11.09.2017 19:54 15,0 C 18,3 C 85 % 1004,2 hPa 0,0 l/m 0,2 km/h (0 Bft) S 171 0 min 0,000 mm 0,0 UV-I 0 W/m 12,5 C 15,0 C 1,6 km/h (1 Bft) 100,00 %
11.09.2017 19:56 14,9 C 18,3 C 85 % 1004,3 hPa 0,0 l/m 0,1 km/h (0 Bft) S 171 0 min 0,000 mm 0,0 UV-I 0 W/m 12,4 C 14,9 C 1,6 km/h (1 Bft) 100,00 %
11.09.2017 19:58 14,9 C 18,3 C 85 % 1004,3 hPa 0,0 l/m 0,5 km/h (0 Bft) S 171 0 min 0,000 mm 0,0 UV-I 0 W/m 12,4 C 14,9 C 3,2 km/h (1 Bft) 100,00 %
11.09.2017 20:00 14,9 C 18,3 C 85 % 1004,4 hPa 0,0 l/m 0,1 km/h (0 Bft) S 171 0 min 0,000 mm 0,0 UV-I 0 W/m 12,4 C 14,9 C 1,6 km/h (1 Bft) 100,00 %
11.09.2017 20:02 14,9 C 18,3 C 85 % 1004,4 hPa 0,0 l/m 2,4 km/h (1 Bft) S 171 0 min 0,000 mm 0,0 UV-I 0 W/m 12,4 C 14,9 C 6,4 km/h (2 Bft) 100,00 %
11.09.2017 20:04 14,9 C 18,3 C 85 % 1004,5 hPa 0,0 l/m 1,1 km/h (1 Bft) S 171 0 min 0,000 mm 0,0 UV-I 0 W/m 12,4 C 14,9 C 3,2 km/h (1 Bft) 100,00 %
11.09.2017 20:06 14,9 C 18,3 C 84 % 1004,5 hPa 0,0 l/m 1,1 km/h (1 Bft) S 171 0 min 0,000 mm 0,0 UV-I 0 W/m 12,2 C 14,9 C 3,2 km/h (1 Bft) 97,37 %
11.09.2017 20:08 14,9 C 18,3 C 85 % 1004,6 hPa 0,0 l/m 3,0 km/h (1 Bft) S-SO 165 0 min 0,000 mm 0,0 UV-I 0 W/m 12,4 C 14,9 C 6,4 km/h (2 Bft) 98,21 %
11.09.2017 20:10 14,8 C 18,3 C 84 % 1004,6 hPa 0,0 l/m 1,6 km/h (1 Bft) S-SO 165 0 min 0,000 mm 0,0 UV-I 0 W/m 12,1 C 14,8 C 3,2 km/h (1 Bft) 97,44 %
11.09.2017 20:12 14,8 C 18,3 C 84 % 1004,6 hPa 0,0 l/m 2,2 km/h (1 Bft) S-SO 165 0 min 0,000 mm 0,0 UV-I 0 W/m 12,1 C 14,8 C 6,4 km/h (2 Bft) 96,00 %
11.09.2017 20:14 14,8 C 18,3 C 84 % 1004,7 hPa 0,0 l/m 4,1 km/h (1 Bft) S-SO 167 0 min 0,000 mm 0,0 UV-I 0 W/m 12,1 C 14,8 C 8,0 km/h (2 Bft) 97,37 %
11.09.2017 20:16 14,9 C 18,3 C 83 % 1004,7 hPa 0,0 l/m 2,0 km/h (1 Bft) S-SO 165 0 min 0,000 mm 0,0 UV-I 0 W/m 12,0 C 14,9 C 6,4 km/h (2 Bft) 98,00 %
11.09.2017 20:18 14,9 C 18,3 C 83 % 1004,8 hPa 0,0 l/m 2,0 km/h (1 Bft) S-SO 165 0 min 0,000 mm 0,0 UV-I 0 W/m 12,0 C 14,9 C 3,2 km/h (1 Bft) 96,43 %
11.09.2017 20:20 14,9 C 18,3 C 83 % 1004,7 hPa 0,0 l/m 1,1 km/h (1 Bft) S-SO 165 0 min 0,000 mm 0,0 UV-I 0 W/m 12,0 C 14,9 C 3,2 km/h (1 Bft) 97,56 %
11.09.2017 20:22 14,9 C 18,3 C 83 % 1004,8 hPa 0,0 l/m 2,2 km/h (1 Bft) S-SO 165 0 min 0,000 mm 0,0 UV-I 0 W/m 12,0 C 14,9 C 8,0 km/h (2 Bft) 94,34 %
11.09.2017 20:24 14,9 C 18,3 C 83 % 1004,8 hPa 0,0 l/m 1,4 km/h (1 Bft) S-SO 165 0 min 0,000 mm 0,0 UV-I 0 W/m 12,0 C 14,9 C 6,4 km/h (2 Bft) 97,56 %
11.09.2017 20:26 14,9 C 18,3 C 83 % 1004,8 hPa 0,0 l/m 1,7 km/h (1 Bft) S-SO 165 0 min 0,000 mm 0,0 UV-I 0 W/m 12,0 C 14,9 C 6,4 km/h (2 Bft) 98,00 %
11.09.2017 20:28 14,9 C 18,3 C 83 % 1004,8 hPa 0,0 l/m 1,3 km/h (1 Bft) S-SO 165 0 min 0,000 mm 0,0 UV-I 0 W/m 12,0 C 14,9 C 6,4 km/h (2 Bft) 97,14 %
11.09.2017 20:30 14,9 C 18,3 C 83 % 1004,9 hPa 0,0 l/m 2,0 km/h (1 Bft) S-SO 165 0 min 0,000 mm 0,0 UV-I 0 W/m 12,0 C 14,9 C 3,2 km/h (1 Bft) 98,11 %
11.09.2017 20:32 14,9 C 18,3 C 83 % 1004,9 hPa 0,0 l/m 2,3 km/h (1 Bft) S 186 0 min 0,000 mm 0,0 UV-I 0 W/m 12,0 C 14,9 C 6,4 km/h (2 Bft) 97,87 %
11.09.2017 20:34 14,9 C 18,3 C 83 % 1004,8 hPa 0,0 l/m 3,7 km/h (1 Bft) S-SW 192 0 min 0,000 mm 0,0 UV-I 0 W/m 12,0 C 14,9 C 8,0 km/h (2 Bft) 96,00 %
11.09.2017 20:36 14,9 C 18,3 C 83 % 1004,8 hPa 0,0 l/m 5,5 km/h (1 Bft) S-SO 163 0 min 0,000 mm 0,0 UV-I 0 W/m 12,0 C 14,9 C 9,7 km/h (2 Bft) 97,87 %
11.09.2017 20:38 14,9 C 18,3 C 83 % 1004,8 hPa 0,0 l/m 4,0 km/h (1 Bft) S-SO 159 0 min 0,000 mm 0,0 UV-I 0 W/m 12,0 C 14,9 C 8,0 km/h (2 Bft) 97,87 %
11.09.2017 20:40 14,9 C 18,3 C 83 % 1004,8 hPa 0,0 l/m 4,1 km/h (1 Bft) S-SW 200 0 min 0,000 mm 0,0 UV-I 0 W/m 12,0 C 14,9 C 8,0 km/h (2 Bft) 100,00 %
11.09.2017 20:42 14,9 C 18,3 C 83 % 1004,9 hPa 0,0 l/m 1,9 km/h (1 Bft) S-SW 198 0 min 0,000 mm 0,0 UV-I 0 W/m 12,0 C 14,9 C 4,8 km/h (1 Bft) 100,00 %
11.09.2017 20:44 14,9 C 18,3 C 83 % 1004,9 hPa 0,0 l/m 2,0 km/h (1 Bft) S-SW 198 0 min 0,000 mm 0,0 UV-I 0 W/m 12,0 C 14,9 C 3,2 km/h (1 Bft) 100,00 %
11.09.2017 20:46 14,9 C 18,3 C 83 % 1004,9 hPa 0,0 l/m 2,1 km/h (1 Bft) S-SW 198 0 min 0,000 mm 0,0 UV-I 0 W/m 12,0 C 14,9 C 4,8 km/h (1 Bft) 95,74 %
11.09.2017 20:48 14,8 C 18,3 C 83 % 1004,9 hPa 0,0 l/m 3,2 km/h (1 Bft) S-SO 166 0 min 0,000 mm 0,0 UV-I 0 W/m 11,9 C 14,8 C 8,0 km/h (2 Bft) 100,00 %
11.09.2017 20:50 14,9 C 18,3 C 83 % 1005,0 hPa 0,0 l/m 2,5 km/h (1 Bft) S 175 0 min 0,000 mm 0,0 UV-I 0 W/m 12,0 C 14,9 C 6,4 km/h (2 Bft) 97,44 %
11.09.2017 20:52 14,9 C 18,3 C 83 % 1005,0 hPa 0,0 l/m 4,1 km/h (1 Bft) S-SW 192 0 min 0,000 mm 0,0 UV-I 0 W/m 12,0 C 14,9 C 6,4 km/h (2 Bft) 98,11 %
11.09.2017 20:54 14,9 C 18,3 C 83 % 1005,0 hPa 0,0 l/m 2,5 km/h (1 Bft) S 184 0 min 0,000 mm 0,0 UV-I 0 W/m 12,0 C 14,9 C 4,8 km/h (1 Bft) 97,56 %
11.09.2017 20:56 14,9 C 18,3 C 83 % 1005,0 hPa 0,0 l/m 2,6 km/h (1 Bft) S 184 0 min 0,000 mm 0,0 UV-I 0 W/m 12,0 C 14,9 C 4,8 km/h (1 Bft) 96,00 %
11.09.2017 20:58 14,9 C 18,3 C 83 % 1005,1 hPa 0,0 l/m 2,3 km/h (1 Bft) S 183 0 min 0,000 mm 0,0 UV-I 0 W/m 12,0 C 14,9 C 4,8 km/h (1 Bft) 96,00 %
11.09.2017 21:00 14,9 C 18,3 C 83 % 1005,1 hPa 0,0 l/m 3,4 km/h (1 Bft) S 186 0 min 0,000 mm 0,0 UV-I 0 W/m 12,0 C 14,9 C 6,4 km/h (2 Bft) 96,00 %
11.09.2017 21:02 14,9 C 18,3 C 84 % 1005,1 hPa 0,0 l/m 2,0 km/h (1 Bft) S-SW 209 0 min 0,000 mm 0,0 UV-I 0 W/m 12,2 C 14,9 C 6,4 km/h (2 Bft) 94,74 %
11.09.2017 21:04 14,8 C 18,3 C 84 % 1005,1 hPa 0,0 l/m 3,1 km/h (1 Bft) S 189 0 min 0,000 mm 0,0 UV-I 0 W/m 12,1 C 14,8 C 6,4 km/h (2 Bft) 96,00 %
11.09.2017 21:06 14,8 C 18,3 C 84 % 1005,1 hPa 0,0 l/m 3,3 km/h (1 Bft) S-SO 157 0 min 0,000 mm 0,0 UV-I 0 W/m 12,1 C 14,8 C 4,8 km/h (1 Bft) 98,11 %
11.09.2017 21:08 14,8 C 18,3 C 85 % 1005,1 hPa 0,0 l/m 3,9 km/h (1 Bft) S-SW 197 0 min 0,000 mm 0,0 UV-I 0 W/m 12,3 C 14,8 C 8,0 km/h (2 Bft) 97,37 %
11.09.2017 21:10 14,8 C 18,3 C 85 % 1005,1 hPa 0,0 l/m 2,2 km/h (1 Bft) S-SW 197 0 min 0,000 mm 0,0 UV-I 0 W/m 12,3 C 14,8 C 4,8 km/h (1 Bft) 97,87 %
11.09.2017 21:12 14,7 C 18,3 C 85 % 1005,1 hPa 0,0 l/m 3,2 km/h (1 Bft) S 184 0 min 0,000 mm 0,0 UV-I 0 W/m 12,2 C 14,7 C 6,4 km/h (2 Bft) 96,00 %
11.09.2017 21:14 14,6 C 18,3 C 86 % 1005,1 hPa 0,0 l/m 2,7 km/h (1 Bft) S 171 0 min 0,000 mm 0,0 UV-I 0 W/m 12,3 C 14,6 C 4,8 km/h (1 Bft) 97,87 %
11.09.2017 21:16 14,6 C 18,3 C 86 % 1005,2 hPa 0,0 l/m 3,8 km/h (1 Bft) S 182 0 min 0,000 mm 0,0 UV-I 0 W/m 12,3 C 14,6 C 6,4 km/h (2 Bft) 94,74 %
11.09.2017 21:18 14,5 C 18,3 C 87 % 1005,2 hPa 0,2 l/m 3,1 km/h (1 Bft) S 188 0 min 0,000 mm 0,0 UV-I 0 W/m 12,4 C 14,5 C 4,8 km/h (1 Bft) 96,30 %
11.09.2017 21:20 14,4 C 18,3 C 87 % 1005,2 hPa 0,0 l/m 2,9 km/h (1 Bft) S 188 0 min 0,000 mm 0,0 UV-I 0 W/m 12,3 C 14,4 C 6,4 km/h (2 Bft) 98,57 %
11.09.2017 21:22 14,4 C 18,3 C 87 % 1005,3 hPa 0,0 l/m 2,9 km/h (1 Bft) S 178 0 min 0,000 mm 0,0 UV-I 0 W/m 12,3 C 14,4 C 6,4 km/h (2 Bft) 94,64 %
11.09.2017 21:24 14,3 C 18,3 C 88 % 1005,3 hPa 0,0 l/m 3,3 km/h (1 Bft) S 181 0 min 0,000 mm 0,0 UV-I 0 W/m 12,3 C 14,3 C 6,4 km/h (2 Bft) 97,87 %
11.09.2017 21:26 14,3 C 18,3 C 88 % 1005,3 hPa 0,2 l/m 2,6 km/h (1 Bft) S 190 0 min 0,000 mm 0,0 UV-I 0 W/m 12,3 C 14,3 C 4,8 km/h (1 Bft) 97,44 %
11.09.2017 21:28 14,2 C 18,3 C 88 % 1005,3 hPa 0,0 l/m 3,5 km/h (1 Bft) S 188 0 min 0,000 mm 0,0 UV-I 0 W/m 12,2 C 14,2 C 6,4 km/h (2 Bft) 96,15 %
11.09.2017 21:30 14,2 C 18,3 C 89 % 1005,4 hPa 0,0 l/m 3,4 km/h (1 Bft) S-SW 192 0 min 0,000 mm 0,0 UV-I 0 W/m 12,4 C 14,2 C 6,4 km/h (2 Bft) 94,87 %
11.09.2017 21:32 14,2 C 18,3 C 89 % 1005,4 hPa 0,0 l/m 2,7 km/h (1 Bft) W-SW 247 0 min 0,000 mm 0,0 UV-I 0 W/m 12,4 C 14,2 C 4,8 km/h (1 Bft) 96,23 %
11.09.2017 21:34 14,2 C 18,3 C 89 % 1005,4 hPa 0,0 l/m 2,2 km/h (1 Bft) W-SW 247 0 min 0,000 mm 0,0 UV-I 0 W/m 12,4 C 14,2 C 3,2 km/h (1 Bft) 98,11 %
11.09.2017 21:36 14,1 C 18,3 C 89 % 1005,4 hPa 0,0 l/m 3,1 km/h (1 Bft) W-SW 247 0 min 0,000 mm 0,0 UV-I 0 W/m 12,3 C 14,1 C 4,8 km/h (1 Bft) 97,37 %
11.09.2017 21:38 14,1 C 18,3 C 90 % 1005,5 hPa 0,0 l/m 3,9 km/h (1 Bft) W-SW 247 0 min 0,000 mm 0,0 UV-I 0 W/m 12,5 C 14,1 C 6,4 km/h (2 Bft) 100,00 %
11.09.2017 21:40 14,1 C 18,3 C 90 % 1005,5 hPa 0,0 l/m 7,5 km/h (2 Bft) W-SW 253 0 min 0,000 mm 0,0 UV-I 0 W/m 12,5 C 13,4 C 14,5 km/h (3 Bft) 96,00 %
11.09.2017 21:42 14,1 C 18,3 C 90 % 1005,6 hPa 0,0 l/m 7,2 km/h (2 Bft) SW 225 0 min 0,000 mm 0,0 UV-I 0 W/m 12,5 C 13,6 C 12,9 km/h (3 Bft) 94,74 %
11.09.2017 21:44 14,0 C 18,3 C 90 % 1005,6 hPa 0,2 l/m 7,4 km/h (2 Bft) SW 232 0 min 0,000 mm 0,0 UV-I 0 W/m 12,4 C 13,4 C 12,9 km/h (3 Bft) 96,00 %
11.09.2017 21:45 14,0 C 18,3 C 90 % 1005,6 hPa 0,2 l/m 8,0 km/h (2 Bft) SW 225 0 min 0,000 mm 0,0 UV-I 0 W/m 12,4 C 13,1 C 14,5 km/h (3 Bft) 100,00 %
11.09.2017 21:50 14,0 C 18,3 C 90 % 1005,6 hPa 0,0 l/m 8,0 km/h (2 Bft) SW 225 0 min 0,000 mm 0,0 UV-I 0 W/m 12,4 C 13,1 C 14,5 km/h (3 Bft) 100,00 %
11.09.2017 21:55 14,0 C 18,3 C 90 % 1005,7 hPa 0,2 l/m 8,0 km/h (2 Bft) W-SW 247 0 min 0,000 mm 0,0 UV-I 0 W/m 12,4 C 13,1 C 12,9 km/h (3 Bft) 99,12 %
11.09.2017 22:00 13,9 C 18,3 C 90 % 1005,6 hPa 0,2 l/m 8,0 km/h (2 Bft) SW 225 0 min 0,000 mm 0,0 UV-I 0 W/m 12,3 C 12,9 C 14,5 km/h (3 Bft) 99,12 %
11.09.2017 22:05 13,9 C 18,3 C 90 % 1005,7 hPa 0,0 l/m 6,4 km/h (2 Bft) SW 225 0 min 0,000 mm 0,0 UV-I 0 W/m 12,3 C 13,9 C 11,3 km/h (2 Bft) 96,49 %
11.09.2017 22:10 13,8 C 18,3 C 90 % 1005,8 hPa 0,2 l/m 4,8 km/h (1 Bft) W 270 0 min 0,000 mm 0,0 UV-I 0 W/m 12,2 C 13,8 C 12,9 km/h (3 Bft) 96,49 %
11.09.2017 22:15 13,7 C 18,3 C 91 % 1005,7 hPa 0,0 l/m 6,4 km/h (2 Bft) SW 225 0 min 0,000 mm 0,0 UV-I 0 W/m 12,3 C 13,7 C 12,9 km/h (3 Bft) 96,49 %
11.09.2017 22:20 13,6 C 18,3 C 91 % 1005,7 hPa 0,0 l/m 3,2 km/h (1 Bft) SW 225 0 min 0,000 mm 0,0 UV-I 0 W/m 12,2 C 13,6 C 6,4 km/h (2 Bft) 97,37 %
11.09.2017 22:25 13,6 C 18,3 C 91 % 1005,8 hPa 0,0 l/m 6,4 km/h (2 Bft) S-SW 202 0 min 0,000 mm 0,0 UV-I 0 W/m 12,2 C 13,6 C 8,0 km/h (2 Bft) 97,37 %
11.09.2017 22:30 13,6 C 18,3 C 92 % 1005,8 hPa 0,0 l/m 4,8 km/h (1 Bft) S-SW 202 0 min 0,000 mm 0,0 UV-I 0 W/m 12,3 C 13,6 C 8,0 km/h (2 Bft) 100,00 %
11.09.2017 22:35 13,6 C 18,3 C 92 % 1005,9 hPa 0,0 l/m 4,8 km/h (1 Bft) SW 225 0 min 0,000 mm 0,0 UV-I 0 W/m 12,3 C 13,6 C 9,7 km/h (2 Bft) 98,25 %
11.09.2017 22:40 13,6 C 18,3 C 91 % 1005,8 hPa 0,0 l/m 8,0 km/h (2 Bft) SW 225 0 min 0,000 mm 0,0 UV-I 0 W/m 12,2 C 12,6 C 16,1 km/h (3 Bft) 100,00 %
11.09.2017 22:45 13,6 C 18,3 C 91 % 1005,9 hPa 0,0 l/m 9,7 km/h (2 Bft) W-SW 247 0 min 0,000 mm 0,0 UV-I 0 W/m 12,2 C 11,7 C 19,3 km/h (3 Bft) 97,37 %
11.09.2017 22:50 13,7 C 18,3 C 90 % 1006,0 hPa 0,0 l/m 9,7 km/h (2 Bft) SW 225 0 min 0,000 mm 0,0 UV-I 0 W/m 12,1 C 11,8 C 17,7 km/h (3 Bft) 96,49 %
11.09.2017 22:55 13,7 C 18,3 C 90 % 1006,1 hPa 0,0 l/m 9,7 km/h (2 Bft) SW 225 0 min 0,000 mm 0,0 UV-I 0 W/m 12,1 C 11,8 C 16,1 km/h (3 Bft) 99,12 %
11.09.2017 23:00 13,7 C 18,3 C 89 % 1006,1 hPa 0,0 l/m 11,3 km/h (2 Bft) SW 225 0 min 0,000 mm 0,0 UV-I 0 W/m 11,9 C 11,1 C 20,9 km/h (4 Bft) 97,37 %
11.09.2017 23:05 13,7 C 18,3 C 88 % 1006,3 hPa 0,0 l/m 12,9 km/h (3 Bft) W-SW 247 0 min 0,000 mm 0,0 UV-I 0 W/m 11,7 C 10,4 C 20,9 km/h (4 Bft) 97,37 %
11.09.2017 23:10 13,7 C 18,3 C 87 % 1006,3 hPa 0,0 l/m 11,3 km/h (2 Bft) W-SW 247 0 min 0,000 mm 0,0 UV-I 0 W/m 11,6 C 11,1 C 19,3 km/h (3 Bft) 96,49 %
11.09.2017 23:15 13,7 C 18,3 C 87 % 1006,3 hPa 0,0 l/m 11,3 km/h (2 Bft) SW 225 0 min 0,000 mm 0,0 UV-I 0 W/m 11,6 C 11,1 C 19,3 km/h (3 Bft) 97,37 %
11.09.2017 23:20 13,7 C 18,3 C 86 % 1006,4 hPa 0,0 l/m 12,9 km/h (3 Bft) SW 225 0 min 0,000 mm 0,0 UV-I 0 W/m 11,4 C 10,4 C 22,5 km/h (4 Bft) 99,12 %
11.09.2017 23:25 13,7 C 18,3 C 85 % 1006,5 hPa 0,0 l/m 12,9 km/h (3 Bft) W-SW 247 0 min 0,000 mm 0,0 UV-I 0 W/m 11,2 C 10,4 C 24,1 km/h (4 Bft) 98,25 %
11.09.2017 23:30 13,7 C 18,3 C 85 % 1006,5 hPa 0,0 l/m 11,3 km/h (2 Bft) W-SW 247 0 min 0,000 mm 0,0 UV-I 0 W/m 11,2 C 11,1 C 17,7 km/h (3 Bft) 98,25 %
11.09.2017 23:35 13,7 C 18,3 C 85 % 1006,5 hPa 0,0 l/m 9,7 km/h (2 Bft) W-SW 247 0 min 0,000 mm 0,0 UV-I 0 W/m 11,2 C 11,8 C 16,1 km/h (3 Bft) 98,25 %
11.09.2017 23:40 13,7 C 18,3 C 85 % 1006,6 hPa 0,0 l/m 11,3 km/h (2 Bft) W-SW 247 0 min 0,000 mm 0,0 UV-I 0 W/m 11,2 C 11,1 C 14,5 km/h (3 Bft) 98,25 %
11.09.2017 23:45 13,7 C 18,3 C 85 % 1006,5 hPa 0,0 l/m 11,3 km/h (2 Bft) W-SW 247 0 min 0,000 mm 0,0 UV-I 0 W/m 11,2 C 11,1 C 17,7 km/h (3 Bft) 98,25 %
11.09.2017 23:50 13,7 C 18,3 C 85 % 1006,6 hPa 0,0 l/m 11,3 km/h (2 Bft) W-SW 247 0 min 0,000 mm 0,0 UV-I 0 W/m 11,2 C 11,1 C 19,3 km/h (3 Bft) 100,00 %
11.09.2017 23:55 13,7 C 18,3 C 85 % 1006,7 hPa 0,0 l/m 9,7 km/h (2 Bft) W-SW 247 0 min 0,000 mm 0,0 UV-I 0 W/m 11,2 C 11,8 C 14,5 km/h (3 Bft) 100,00 %
_ Min-Zeit 06:56 00:20 16:44 15:12 - 02:45 - - - - - - 05:28 23:05 02:50 08:34
Minimum _ 10,8 C 18,3 C 73 % 1002,8 hPa - 0,0 km/h (0 Bft) - - - - - - 10,0 C 10,4 C 0,0 km/h (0 Bft) 90,00 %
_ Max-Zeit 15:10 00:00 08:04 00:00 21:18 23:05 - - 06:46 11:00 13:30 09:56 18:26 15:10 23:25 00:20
Maximum _ 16,7 C 18,9 C 97 % 1007,0 hPa 0,2 l/m 12,9 km/h
W-SW (3 Bft)
- - 2 min 0,153 mm 2,0 UV-I 444 W/m 13,0 C 16,7 C 24,1 km/h
SW (4 Bft)
100,00 %
Durchschnitt _ 13,9 C 18,3 C 87 % 1004,4 hPa #1,4 l/m 3,0 km/h (1 Bft) W-SW - #32 min. #1,168 mm 1,3 UV-I 153 W/m 11,7 C 13,7 C 5,6 km/h (1 Bft) 98,14 %